Laatste waarneming: 17:03
Temperatuur:21,0°C
Dauwpunt:16,9°C
Rel. vocht:77,4%
Natte-bol:19,2°C
Wind (gem. 10 min.):3,1 m/s
Wind (max. 10 min.): m/s
Windrichting:34°
Neerslagsom:10,4 mm
Neerslagintensiteit:0,0 mm/u
Luchtdruk:1009,1 hPa
Straling:678,8 W/m2
 
Maximumtemp.:21,3°C (16:06)
Minimumtemp.:15,9°C (02:13)
Hoogste windstoot:9,8 m/s (01:01)


Bekijk het Grafiekoverzicht.
Bekijk het Maandoverzicht.
Dagtabel
Tijd Temp. Dauwp. Natte-bol Rel. Hum. Windsnelh. Windricht. Windstoot Neerslag Straling Luchtdruk
 
17:03 21,0 16,9 19,2 77,4 3,1 34 - 10,4 679 1.009,1
17:02 21,1 17,1 19,4 78,0 3,0 33 - 10,4 700 1.009,1
17:01 21,1 17,1 19,4 78,0 3,0 31 - 10,4 704 1.009,1
17:00 21,0 17,0 19,3 78,0 2,9 30 - 10,4 705 1.009,1
 
16:59 21,1 17,1 19,4 78,0 2,9 28 - 10,4 693 1.009,1
16:58 21,1 17,2 19,4 78,3 2,7 26 - 10,4 693 1.009,1
16:57 21,2 17,3 19,6 78,6 2,7 25 - 10,4 709 1.009,1
16:56 21,2 17,3 19,6 78,6 2,7 23 - 10,4 704 1.009,1
16:55 21,2 17,3 19,5 78,3 2,5 22 - 10,4 464 1.009,1
16:54 21,2 17,2 19,5 78,0 2,4 20 - 10,4 478 1.009,1
16:53 21,2 17,2 19,5 78,0 2,3 18 - 10,4 585 1.009,1
16:52 21,1 17,2 19,4 78,3 2,4 17 - 10,4 666 1.009,1
16:51 21,1 17,2 19,5 78,6 2,5 15 - 10,4 664 1.009,1
16:50 21,1 17,1 19,4 78,0 2,6 13 - 10,4 680 1.009,1
16:49 21,2 17,2 19,5 78,0 2,8 12 - 10,4 728 1.009,1
16:48 21,2 17,2 19,5 78,0 2,9 11 - 10,4 751 1.009,1
16:47 21,1 17,1 19,4 78,0 2,9 11 - 10,4 749 1.009,1
16:46 21,1 17,2 19,4 78,3 2,9 11 - 10,4 761 1.009,1
16:45 21,1 17,3 19,5 79,0 2,8 12 - 10,4 768 1.009,0
16:44 21,1 17,3 19,5 79,0 2,7 12 - 10,4 764 1.009,0
16:43 21,0 17,1 19,3 78,3 2,6 13 - 10,4 728 1.009,1
16:42 21,0 17,2 19,4 79,0 2,6 13 - 10,4 729 1.009,1
16:41 21,0 17,5 19,6 80,2 2,6 13 - 10,4 740 1.009,1
16:40 20,9 17,5 19,6 80,7 2,5 13 - 10,4 814 1.009,1
16:39 20,8 17,2 19,4 80,0 2,5 12 - 10,4 851 1.009,1
16:38 20,8 17,1 19,3 79,4 2,5 13 - 10,4 360 1.009,1
16:37 20,9 17,1 19,3 79,0 2,4 13 - 10,4 334 1.009,1
16:36 20,9 17,3 19,5 79,9 2,3 13 - 10,4 334 1.009,1
16:35 21,0 17,4 19,6 80,0 2,2 13 - 10,4 314 1.009,0
16:34 21,0 17,4 19,6 80,0 2,0 13 - 10,4 506 1.009,0
16:33 21,0 17,4 19,6 80,0 1,7 13 - 10,4 596 1.009,0
16:32 20,9 17,5 19,6 80,7 1,6 12 - 10,4 668 1.009,0
16:31 20,7 17,2 19,3 80,2 1,6 11 - 10,4 654 1.009,0
16:30 20,6 17,2 19,3 81,0 1,7 9 - 10,4 612 1.009,0
16:29 20,5 17,1 19,2 81,0 1,9 6 - 10,4 660 1.009,0
16:28 20,4 17,1 19,2 81,4 2,1 4 - 10,4 663 1.009,1
16:27 20,3 17,2 19,3 82,5 2,3 1 - 10,4 721 1.009,1
16:26 20,2 17,1 19,1 82,4 2,5 358 - 10,4 747 1.009,1
16:25 20,2 17,0 19,1 82,0 2,6 355 - 10,4 592 1.009,1
16:24 20,2 17,1 19,1 82,2 2,6 353 - 10,4 371 1.009,1
16:23 20,2 17,2 19,2 82,7 2,6 351 - 10,4 371 1.009,1
16:22 20,2 17,0 19,1 82,0 2,6 349 - 10,4 371 1.009,1
16:21 20,2 17,0 19,1 82,0 2,7 348 - 10,4 341 1.009,1
16:20 20,2 17,0 19,1 82,0 2,8 348 - 10,4 370 1.009,0
16:19 20,2 16,9 19,0 81,2 3,0 348 - 10,4 367 1.008,9
16:18 20,3 16,9 19,0 80,9 3,1 348 - 10,4 341 1.008,9
16:17 20,4 16,8 19,0 80,0 3,3 348 - 10,4 301 1.008,9
16:16 20,6 16,9 19,1 79,6 3,4 348 - 10,4 283 1.008,8
16:15 20,7 16,9 19,1 79,0 3,4 349 - 10,4 317 1.008,9
16:14 20,8 17,2 19,3 79,7 3,3 350 - 10,4 407 1.008,9
16:13 20,9 17,2 19,4 79,2 3,1 351 - 10,4 489 1.008,9
16:12 20,9 17,1 19,3 79,0 2,9 353 - 10,4 599 1.008,9
16:11 21,0 17,2 19,4 79,0 2,7 354 - 10,4 612 1.008,9
16:10 21,0 17,1 19,3 78,5 2,6 356 - 10,4 619 1.009,0
16:09 21,1 17,2 19,5 78,6 2,5 357 - 10,4 619 1.009,0
16:08 21,2 17,4 19,6 79,0 2,5 359 - 10,4 619 1.008,9
16:07 21,3 17,5 19,7 79,0 2,4 0 - 10,4 619 1.008,9
16:06 21,3 17,5 19,7 79,0 2,4 2 - 10,4 678 1.008,9
16:05 21,2 17,4 19,6 79,0 2,3 4 - 10,4 737 1.008,9
16:04 21,1 17,3 19,5 79,0 2,2 6 - 10,4 751 1.008,9
16:03 21,1 17,2 19,4 78,4 2,2 7 - 10,4 733 1.008,9
16:02 21,1 17,3 19,5 78,8 2,3 8 - 10,4 722 1.008,9
16:01 21,1 17,3 19,5 79,0 2,4 9 - 10,4 735 1.008,9
16:00 21,1 17,3 19,5 79,0 2,5 9 - 10,4 746 1.008,9
 
15:59 21,1 17,4 19,6 79,4 2,6 10 - 10,4 753 1.009,0
15:58 21,0 17,5 19,7 80,5 2,7 10 - 10,4 748 1.009,0
15:57 21,0 17,6 19,7 81,0 2,7 10 - 10,4 765 1.009,0
15:56 20,9 17,5 19,6 81,0 2,8 10 - 10,4 789 1.009,0
15:55 20,9 17,5 19,6 81,0 2,8 11 - 10,4 783 1.009,0
15:54 20,9 17,5 19,6 81,0 2,7 11 - 10,4 757 1.009,0
15:53 20,9 17,6 19,7 81,4 2,5 12 - 10,4 816 1.009,0
15:52 20,8 17,6 19,7 82,0 2,3 13 - 10,4 847 1.009,0
15:51 20,7 17,5 19,6 82,0 2,2 14 - 10,4 847 1.009,1
15:50 20,6 17,4 19,5 82,0 2,1 15 - 10,4 847 1.009,1
15:48 20,6 17,5 19,5 82,3 2,1 15 - 10,4 820 1.009,1
15:47 20,5 17,4 19,5 82,5 2,2 16 - 10,4 764 1.009,1
15:46 20,5 17,3 19,4 82,0 2,3 16 - 10,4 730 1.009,1
15:45 20,4 17,2 19,3 82,0 2,4 15 - 10,4 554 1.009,1
15:44 20,4 17,2 19,3 82,0 2,3 14 - 10,4 522 1.009,2
15:43 20,4 17,4 19,4 83,0 2,3 13 - 10,4 511 1.009,2
15:42 20,3 17,3 19,3 83,0 2,2 11 - 10,4 519 1.009,3
15:41 20,3 17,2 19,3 82,5 2,3 10 - 10,4 558 1.009,3
15:40 20,3 17,1 19,2 82,0 2,4 8 - 10,4 382 1.009,4
15:39 20,3 17,3 19,3 82,7 2,5 6 - 10,4 360 1.009,4
15:38 20,4 17,4 19,4 83,0 2,6 4 - 10,4 360 1.009,4
15:37 20,4 17,4 19,4 83,0 2,6 1 - 10,4 330 1.009,4
15:36 20,4 17,4 19,4 82,8 2,6 359 - 10,4 403 1.009,4
15:35 20,4 17,2 19,3 82,0 2,6 356 - 10,4 475 1.009,4
15:34 20,5 17,3 19,4 82,0 2,6 353 - 10,4 509 1.009,4
15:33 20,5 17,3 19,4 82,0 2,7 351 - 10,4 454 1.009,4
15:32 20,6 17,6 19,6 82,9 2,9 348 - 10,4 508 1.009,3
15:31 20,6 17,6 19,7 83,0 3,1 345 - 10,4 731 1.009,3
15:30 20,6 17,6 19,7 83,0 3,3 343 - 10,4 954 1.009,3
15:29 20,5 17,6 19,6 83,5 3,3 341 - 10,4 954 1.009,3
15:28 20,4 17,6 19,6 84,0 3,3 339 - 10,4 954 1.009,3
15:27 20,3 17,4 19,4 83,3 3,3 337 - 10,4 879 1.009,2
15:26 20,2 17,0 19,1 82,1 3,4 336 - 10,4 577 1.009,2
15:25 20,3 17,2 19,2 82,2 3,4 334 - 10,4 741 1.009,2
15:24 20,4 17,4 19,4 83,0 3,4 333 - 10,4 905 1.009,2
15:23 20,4 17,5 19,5 83,5 3,3 332 - 10,4 905 1.009,2
15:22 20,2 17,4 19,4 84,0 3,1 332 - 10,4 519 1.009,2
15:21 20,1 17,2 19,2 83,3 2,9 331 - 10,4 537 1.009,2
15:20 20,0 16,9 18,9 82,1 2,6 331 - 10,4 652 1.009,2
15:19 20,1 16,9 19,0 82,0 2,4 330 - 10,4 629 1.009,2
15:18 20,1 16,8 18,9 81,5 2,3 330 - 10,4 571 1.009,2
15:17 20,2 16,8 18,9 81,0 2,3 330 - 10,4 527 1.009,2
15:16 20,2 17,0 19,0 81,7 2,4 330 - 10,4 459 1.009,2
15:15 20,2 17,0 19,1 82,0 2,4 330 - 10,4 446 1.009,2
15:14 20,1 17,1 19,1 82,9 2,3 330 - 10,4 446 1.009,2
15:13 20,0 17,0 19,0 83,0 2,4 330 - 10,4 476 1.009,2
15:12 19,9 16,9 18,9 83,0 2,4 330 - 10,4 490 1.009,2
15:11 19,8 16,8 18,8 83,0 2,4 330 - 10,4 489 1.009,2
15:10 19,8 16,8 18,8 83,0 2,4 330 - 10,4 467 1.009,2
15:09 19,8 16,8 18,8 83,0 2,5 330 - 10,4 446 1.009,1
15:08 19,8 17,0 19,0 84,0 2,6 329 - 10,4 427 1.009,1
15:07 19,7 16,9 18,9 84,0 2,7 329 - 10,4 389 1.009,1
15:06 19,6 16,8 18,8 84,0 2,8 328 - 10,4 382 1.009,1
15:05 19,6 16,8 18,8 84,0 2,8 328 - 10,4 392 1.009,1
15:04 19,6 16,8 18,8 84,0 2,8 327 - 10,4 382 1.009,1
15:03 19,6 16,8 18,8 84,0 2,7 326 - 10,4 384 1.009,1
15:02 19,6 16,8 18,8 83,9 2,7 325 - 10,4 376 1.009,1
15:01 19,6 16,6 18,6 83,0 2,7 324 - 10,4 371 1.009,0
15:00 19,6 16,6 18,6 83,0 2,8 323 - 10,4 368 1.009,0
 
14:59 19,6 16,6 18,6 83,0 2,8 322 - 10,4 371 1.009,0
14:58 19,7 16,9 18,8 83,7 2,8 321 - 10,4 376 1.009,0
14:57 19,7 16,9 18,9 84,0 2,8 321 - 10,4 378 1.009,0
14:56 19,7 16,8 18,8 83,2 2,7 320 - 10,4 385 1.009,0
14:55 19,7 16,9 18,9 84,0 2,7 320 - 10,4 390 1.009,0
14:54 19,7 16,9 18,9 84,0 2,6 320 - 10,4 407 1.009,0
14:53 19,7 16,9 18,9 84,0 2,5 319 - 10,4 447 1.009,0
14:52 19,6 16,8 18,8 84,0 2,5 319 - 10,4 395 1.009,0
14:51 19,6 16,7 18,6 83,2 2,5 319 - 10,4 390 1.009,0
14:50 19,7 16,9 18,9 84,0 2,5 318 - 10,4 446 1.009,0
14:49 19,8 17,0 18,9 83,7 2,6 318 - 10,4 419 1.009,0
14:48 19,8 16,9 18,9 83,5 2,7 318 - 10,4 427 1.009,0
14:47 19,9 17,2 19,2 84,6 2,7 318 - 10,4 586 1.008,9
14:46 19,8 17,1 19,0 84,2 2,7 318 - 10,4 604 1.008,9
14:45 19,7 16,8 18,7 83,1 2,7 318 - 10,4 621 1.008,9
14:44 19,7 16,9 18,9 84,0 2,6 318 - 10,4 685 1.008,9
14:43 19,7 16,9 18,9 84,0 2,6 318 - 10,4 756 1.008,9
14:42 19,7 16,9 18,9 84,0 2,7 318 - 10,4 771 1.008,9
14:41 19,7 16,9 18,9 84,0 2,8 318 - 10,4 708 1.008,9
14:40 19,8 17,0 19,0 84,0 2,9 318 - 10,4 736 1.008,9
14:39 19,8 17,0 19,0 84,0 3,0 318 - 10,4 780 1.008,8
14:38 19,9 17,2 19,1 84,3 3,0 318 - 10,4 780 1.008,8
14:37 19,8 17,2 19,1 85,0 3,1 318 - 10,4 809 1.008,8
14:36 19,7 17,1 19,0 85,0 3,2 318 - 10,4 792 1.008,8
14:35 19,7 17,1 19,0 85,0 3,3 318 - 10,4 827 1.008,8
14:34 19,6 17,0 18,9 85,0 3,5 318 - 10,4 831 1.008,8
14:33 19,6 16,9 18,8 84,2 3,6 319 - 10,4 836 1.008,8
14:32 19,7 17,1 19,0 85,0 3,7 319 - 10,4 820 1.008,8
14:31 19,7 17,1 19,0 85,0 3,7 319 - 10,4 814 1.008,8
14:30 19,7 17,1 19,0 85,0 3,8 319 - 10,4 811 1.008,8
14:29 19,7 17,1 19,0 85,0 3,8 320 - 10,4 815 1.008,8
14:28 19,6 17,0 18,9 85,0 3,9 320 - 10,4 781 1.008,8
14:27 19,6 17,0 18,9 85,0 3,9 320 - 10,4 817 1.008,8
14:26 19,6 17,0 18,9 85,0 4,0 319 - 10,4 817 1.008,7
14:25 19,6 17,1 19,0 85,4 4,0 319 - 10,4 786 1.008,8
14:24 19,5 17,0 18,9 85,5 4,1 319 - 10,4 818 1.008,8
14:23 19,5 17,0 18,9 85,7 4,1 318 - 10,4 869 1.008,7
14:22 19,6 17,0 18,9 85,2 4,1 318 - 10,4 878 1.008,7
14:21 19,5 16,9 18,8 85,0 4,0 317 - 10,4 871 1.008,8
14:20 19,5 16,9 18,8 85,0 4,0 316 - 10,4 860 1.008,8
14:19 19,5 17,0 18,9 85,4 3,9 315 - 10,4 860 1.008,9
14:18 19,5 17,1 19,0 86,0 3,9 315 - 10,4 858 1.008,9
14:17 19,4 17,0 18,9 86,0 3,8 314 - 10,4 824 1.008,9
14:16 19,4 17,0 18,9 86,0 3,9 313 - 10,4 807 1.008,9
14:15 19,4 17,0 18,9 86,2 3,9 311 - 10,4 807 1.008,9
14:14 19,3 17,1 18,9 87,0 4,0 310 - 10,4 844 1.008,9
14:13 19,2 16,9 18,7 86,6 4,2 309 - 10,4 696 1.008,9
14:12 19,1 16,7 18,5 86,0 4,3 308 - 10,4 638 1.008,9
14:11 19,1 16,7 18,5 86,0 4,4 307 - 10,4 638 1.008,8
14:10 19,2 16,8 18,6 86,0 4,5 306 - 10,4 562 1.008,8
14:09 19,2 16,8 18,7 86,2 4,5 305 - 10,4 422 1.008,8
14:08 19,2 16,9 18,7 86,7 4,5 305 - 10,4 398 1.008,7
14:07 19,2 16,7 18,6 85,6 4,5 304 - 10,4 385 1.008,7
14:06 19,2 16,7 18,6 85,6 4,5 303 - 10,4 385 1.008,7
14:05 19,3 16,9 18,8 86,0 4,4 303 - 10,4 385 1.008,7
14:04 19,3 16,9 18,8 86,0 4,4 303 - 10,4 404 1.008,7
14:03 19,3 16,9 18,8 86,0 4,4 303 - 10,4 438 1.008,7
14:02 19,3 16,9 18,8 86,0 4,4 302 - 10,4 438 1.008,7
14:01 19,3 16,8 18,7 85,6 4,4 302 - 10,4 429 1.008,8
14:00 19,3 16,7 18,6 85,0 4,4 302 - 10,4 430 1.008,9
 
13:59 19,2 16,6 18,5 85,0 4,5 302 - 10,4 417 1.008,9
13:58 19,3 16,7 18,6 85,0 4,5 303 - 10,4 409 1.008,9
13:57 19,3 16,7 18,6 85,0 4,5 303 - 10,4 427 1.008,9
13:56 19,3 16,7 18,6 85,0 4,5 303 - 10,4 473 1.009,0
13:55 19,4 16,8 18,7 85,0 4,4 303 - 10,4 470 1.009,0
13:54 19,4 16,8 18,7 85,0 4,4 303 - 10,4 649 1.009,0
13:53 19,4 16,8 18,7 85,0 4,4 302 - 10,4 636 1.009,0
13:52 19,4 17,0 18,8 85,9 4,4 302 - 10,4 562 1.008,9
13:51 19,4 17,0 18,9 86,0 4,4 302 - 10,4 582 1.008,9
13:50 19,3 16,9 18,8 86,0 4,5 301 - 10,4 744 1.009,0
13:49 19,3 16,9 18,8 86,0 4,6 300 - 10,4 803 1.008,9
13:48 19,3 16,9 18,8 86,0 4,7 299 - 10,4 729 1.008,9
13:47 19,3 16,9 18,8 86,0 4,8 298 - 10,4 642 1.008,9
13:46 19,3 16,9 18,8 86,0 4,9 297 - 10,4 607 1.008,9
13:45 19,3 16,9 18,8 86,0 4,9 296 - 10,4 527 1.009,0
13:44 19,2 16,8 18,6 86,0 4,9 295 - 10,4 494 1.009,0
13:43 19,2 16,7 18,5 85,3 5,0 294 - 10,4 470 1.009,0
13:42 19,3 16,7 18,6 85,0 5,1 293 - 10,4 469 1.008,9
13:41 19,3 16,7 18,6 85,0 5,2 292 - 10,4 654 1.008,9
13:40 19,3 16,7 18,6 85,0 5,4 291 - 10,4 547 1.008,9
13:39 19,4 16,9 18,8 85,3 5,6 290 - 10,4 415 1.008,9
13:38 19,4 16,9 18,8 85,6 5,6 289 - 10,4 366 1.008,9
13:37 19,4 16,7 18,6 84,5 5,7 287 - 10,4 301 1.008,9
13:36 19,4 16,8 18,7 84,7 5,8 286 - 10,4 258 1.008,9
13:35 19,4 16,7 18,6 84,2 5,8 285 - 10,4 242 1.008,8
13:34 19,4 16,6 18,6 84,0 5,8 284 - 10,4 265 1.008,8
13:33 19,4 16,6 18,6 84,0 5,8 283 - 10,4 265 1.008,8
13:32 19,4 16,6 18,6 84,0 5,7 282 - 10,4 318 1.008,8
13:31 19,5 16,7 18,7 84,0 5,6 281 - 10,4 278 1.008,9
13:30 19,6 17,0 18,9 84,7 5,4 280 - 10,4 259 1.008,9
13:29 19,6 16,9 18,8 84,2 5,3 279 - 10,4 468 1.008,9
13:28 19,6 16,8 18,8 84,0 5,1 278 - 10,4 940 1.008,9
13:27 19,6 16,8 18,8 84,0 5,1 277 - 10,4 940 1.008,9
13:26 19,6 16,8 18,8 84,0 5,1 276 - 10,4 940 1.008,9
13:25 19,6 16,8 18,8 84,0 5,2 275 - 10,4 940 1.008,9
13:24 19,6 16,8 18,8 84,0 5,2 274 - 10,4 940 1.008,9
13:23 19,6 16,8 18,8 84,0 5,2 274 - 10,4 929 1.008,9
13:21 19,6 17,0 18,9 85,0 5,1 273 - 10,4 910 1.008,9
13:20 19,6 17,1 19,0 85,5 5,0 273 - 10,4 916 1.008,9
13:19 19,6 17,1 19,0 85,4 4,9 272 - 10,4 905 1.008,9
13:18 19,5 16,9 18,8 85,0 4,8 272 - 10,4 884 1.008,9
13:17 19,4 16,8 18,7 85,0 4,8 272 - 10,4 871 1.008,9
13:16 19,4 16,8 18,7 85,0 4,9 273 - 10,4 903 1.008,9
13:15 19,4 16,9 18,8 85,4 4,9 273 - 10,4 869 1.008,9
13:14 19,4 16,9 18,8 85,5 4,9 273 - 10,4 849 1.008,9
13:13 19,4 16,8 18,7 85,0 4,9 274 - 10,4 849 1.008,9
13:12 19,4 16,8 18,7 85,0 4,8 274 - 10,4 849 1.008,9
13:11 19,4 17,0 18,8 85,9 4,6 274 - 10,4 849 1.008,9
13:10 19,3 16,9 18,8 86,0 4,5 275 - 10,4 849 1.008,9
13:09 19,3 16,9 18,8 86,0 4,5 275 - 10,4 810 1.008,9
13:08 19,3 16,9 18,8 86,0 4,5 275 - 10,4 845 1.008,9
13:07 19,3 16,9 18,8 86,0 4,5 274 - 10,4 806 1.008,9
13:06 19,3 16,8 18,6 85,2 4,7 274 - 10,4 531 1.008,9
13:05 19,3 16,9 18,7 85,9 4,9 273 - 10,4 531 1.008,9
13:01 19,5 - - - - - - - - -
 
12:59 19,3 16,7 18,6 85,1 5,5 272 - 10,4 921 1.008,7
12:58 19,3 16,8 18,6 85,3 5,7 271 - 10,4 921 1.008,7
12:57 19,3 16,9 18,8 86,0 5,8 270 - 10,4 1.060 1.008,7
12:56 19,3 16,9 18,8 86,0 5,7 269 - 10,4 1.106 1.008,7
12:55 19,2 16,8 18,6 86,0 5,5 267 - 10,4 1.000 1.008,7
12:54 19,1 16,7 18,5 86,0 5,4 266 - 10,4 401 1.008,7
12:53 19,1 16,7 18,5 86,0 5,4 265 - 10,4 401 1.008,7
12:52 19,1 16,7 18,5 86,0 5,4 264 - 10,4 356 1.008,7
12:51 19,1 16,7 18,5 86,0 5,6 262 - 10,4 301 1.008,7
12:50 19,1 16,7 18,5 86,0 5,6 261 - 10,4 264 1.008,8
12:49 19,1 16,8 18,6 86,7 5,6 260 - 10,4 239 1.008,7
12:48 19,1 16,7 18,6 86,2 5,5 259 - 10,4 234 1.008,7
12:47 19,1 16,7 18,5 86,0 5,3 258 - 10,4 242 1.008,7
12:46 19,0 16,6 18,4 86,0 5,2 257 - 10,4 226 1.008,7
12:45 19,0 16,6 18,4 86,0 5,1 256 - 10,4 195 1.008,6
12:44 19,0 16,6 18,4 86,0 5,1 254 - 10,4 171 1.008,6
12:43 19,0 16,8 18,6 86,8 5,1 253 - 10,4 155 1.008,7
12:42 19,0 16,6 18,5 86,2 5,2 252 - 10,4 151 1.008,6
12:41 19,0 16,5 18,3 85,2 5,2 251 - 10,4 151 1.008,6
12:40 19,0 16,5 18,4 85,7 5,3 250 - 10,4 150 1.008,6
12:39 19,0 16,4 18,3 85,0 5,3 249 - 10,4 147 1.008,6
12:38 18,9 16,3 18,2 85,0 5,4 248 - 10,4 139 1.008,6
12:37 18,9 16,3 18,2 85,0 5,6 247 - 10,4 130 1.008,6
12:36 18,9 16,3 18,2 85,0 5,7 246 - 10,4 126 1.008,6
12:35 18,9 16,3 18,2 85,0 5,6 245 - 10,4 134 1.008,6
12:34 19,0 16,5 18,4 85,4 5,4 244 - 10,4 149 1.008,6
12:33 19,0 16,6 18,4 86,0 5,3 243 - 10,4 166 1.008,7
12:32 19,0 16,6 18,4 86,0 5,0 242 - 10,4 178 1.008,6
12:31 18,9 16,3 18,2 85,1 4,8 242 - 10,4 181 1.008,6
12:30 18,9 16,3 18,2 85,1 4,7 241 - 10,4 176 1.008,6
12:29 18,9 16,5 18,3 86,0 4,8 241 - 10,4 168 1.008,6
12:28 18,9 16,5 18,3 85,7 5,0 241 - 10,4 160 1.008,7
12:27 18,9 16,3 18,2 85,0 5,2 241 - 10,4 146 1.008,7
12:26 18,9 16,3 18,2 85,0 5,4 241 - 10,4 126 1.008,7
12:25 18,9 16,3 18,2 85,0 5,7 241 - 10,4 107 1.008,7
12:24 18,9 16,3 18,2 85,0 5,9 241 - 10,4 95 1.008,6
12:23 18,9 16,3 18,2 85,0 6,0 241 - 10,4 91 1.008,6
12:22 18,9 16,3 18,2 85,0 6,1 241 - 10,4 90 1.008,6
12:21 18,9 16,3 18,2 85,0 6,1 242 - 10,4 94 1.008,6
12:20 18,9 16,3 18,2 85,0 5,9 242 - 10,4 104 1.008,7
12:19 18,9 16,5 18,3 85,8 5,6 242 - 10,4 119 1.008,6
12:18 18,9 16,5 18,3 86,0 5,2 243 - 10,4 140 1.008,6
12:17 18,9 16,5 18,3 86,0 4,9 243 - 10,4 162 1.008,6
12:16 18,9 16,5 18,3 86,0 4,5 243 - 10,4 187 1.008,6
12:15 18,9 16,5 18,3 86,0 4,2 244 - 10,4 205 1.008,7
12:14 18,9 16,5 18,3 86,0 4,1 244 - 10,4 217 1.008,7
12:13 18,9 16,4 18,2 85,2 4,2 243 - 10,4 226 1.008,7
12:12 18,8 16,2 18,1 85,0 4,4 243 - 10,4 224 1.008,7
12:11 18,9 16,3 18,2 85,0 4,6 243 - 10,4 217 1.008,7
12:10 18,9 16,3 18,2 85,0 4,7 242 - 10,4 209 1.008,6
12:09 19,0 16,4 18,3 85,0 4,7 242 - 10,4 198 1.008,7
12:08 19,0 16,4 18,3 85,0 4,7 241 - 10,4 184 1.008,7
12:07 19,0 16,4 18,3 85,0 4,6 240 - 10,4 175 1.008,7
12:06 19,0 16,4 18,3 85,0 4,5 240 - 10,4 174 1.008,7
12:05 19,0 16,4 18,3 85,0 4,4 239 - 10,4 187 1.008,7
12:04 19,0 16,4 18,3 85,0 4,3 239 - 10,4 211 1.008,7
12:03 19,1 16,6 18,5 85,6 4,1 238 - 10,4 226 1.008,7
12:02 19,1 16,7 18,5 86,0 4,0 237 - 10,4 226 1.008,7
12:01 19,1 16,7 18,5 86,0 4,0 236 - 10,4 231 1.008,7
12:00 19,0 16,6 18,4 86,0 4,0 235 - 10,4 230 1.008,7
 
11:59 19,0 16,6 18,4 86,0 4,0 234 - 10,4 234 1.008,6
11:58 19,0 16,6 18,4 86,0 4,1 233 - 10,4 262 1.008,6
11:57 18,9 16,5 18,3 86,0 4,2 232 - 10,4 313 1.008,5
11:56 18,9 16,5 18,3 86,0 4,4 232 - 10,4 361 1.008,5
11:55 18,8 16,4 18,2 86,0 4,4 232 - 10,4 399 1.008,5
11:54 18,8 16,4 18,2 86,0 4,4 232 - 10,4 425 1.008,5
11:53 18,8 16,4 18,2 86,0 4,5 232 - 10,4 392 1.008,5
11:52 18,8 16,5 18,3 86,5 4,5 232 - 10,4 353 1.008,5
11:51 18,8 16,6 18,4 87,0 4,6 233 - 10,4 298 1.008,5
11:50 18,8 16,6 18,4 87,0 4,7 233 - 10,4 251 1.008,5
11:49 18,8 16,6 18,4 87,0 4,8 233 - 10,4 261 1.008,5
11:48 18,8 16,6 18,4 87,2 4,8 234 - 10,4 285 1.008,4
11:47 18,8 16,8 18,5 88,0 4,8 234 - 10,4 296 1.008,5
11:46 18,8 16,8 18,5 88,0 4,7 234 - 10,4 309 1.008,5
11:45 18,8 16,8 18,5 88,0 4,5 234 - 10,4 338 1.008,4
11:44 18,8 16,8 18,5 88,0 4,4 235 - 10,4 362 1.008,4
11:43 18,8 16,8 18,5 88,0 4,1 235 - 10,4 364 1.008,4
11:42 18,7 16,7 18,4 88,0 3,8 235 - 10,4 416 1.008,4
11:41 18,7 16,7 18,5 88,4 3,5 236 - 10,4 462 1.008,4
11:40 18,7 16,8 18,6 89,0 3,4 236 - 10,4 462 1.008,4
11:39 18,6 16,8 18,4 89,0 3,3 236 - 10,4 437 1.008,4
11:38 18,6 16,8 18,4 89,0 3,3 236 - 10,4 365 1.008,3
11:37 18,5 16,7 18,3 89,0 3,4 235 - 10,4 377 1.008,3
11:36 18,5 16,6 18,3 88,8 3,7 235 - 10,4 367 1.008,3
11:35 18,4 16,4 18,1 88,0 4,0 235 - 10,4 309 1.008,3
11:34 18,4 16,4 18,1 88,0 4,2 234 - 10,4 265 1.008,3
11:33 18,4 16,4 18,1 88,0 4,3 234 - 10,4 244 1.008,3
11:32 18,4 16,4 18,1 88,0 4,3 234 - 10,4 232 1.008,3
11:31 18,4 16,6 18,2 89,0 4,3 234 - 10,4 217 1.008,3
11:30 18,4 16,5 18,2 88,8 4,2 234 - 10,4 216 1.008,4
11:29 18,4 16,4 18,1 88,0 4,2 235 - 10,4 222 1.008,4
11:28 18,4 16,4 18,1 88,0 4,3 235 - 10,4 275 1.008,3
11:27 18,4 16,4 18,1 88,0 4,4 235 - 10,4 271 1.008,3
11:25 18,3 16,3 18,0 88,0 4,6 236 - 10,4 252 1.008,2
11:24 18,3 16,3 18,0 88,0 4,8 236 - 10,4 295 1.008,2
11:23 18,3 16,3 18,0 88,0 5,0 237 - 10,4 306 1.008,2
11:22 18,3 16,3 18,0 88,0 5,1 238 - 10,4 304 1.008,2
11:21 18,2 16,2 17,9 88,0 5,1 238 - 10,4 327 1.008,2
11:20 18,2 16,2 17,9 88,0 5,1 239 - 10,4 335 1.008,2
11:19 18,2 16,2 17,9 88,0 5,2 239 - 10,4 330 1.008,1
11:18 18,2 16,2 17,9 88,0 5,2 239 - 10,4 330 1.008,2
11:17 18,2 16,2 17,9 88,0 5,3 240 - 10,4 305 1.008,2
11:16 18,2 16,2 17,9 88,0 5,1 239 - 10,4 282 1.008,1
11:15 18,3 16,4 18,1 88,9 4,9 239 - 10,4 261 1.008,1
11:14 18,3 16,5 18,1 89,0 4,5 239 - 10,4 250 1.008,1
11:13 18,3 16,5 18,1 89,0 4,1 239 - 10,4 253 1.008,1
11:12 18,2 16,4 18,0 89,0 3,7 239 - 10,4 257 1.008,1
11:11 18,2 16,4 18,0 89,0 3,3 238 - 10,4 269 1.008,1
11:10 18,2 16,4 18,0 89,0 3,1 238 - 10,4 272 1.008,1
11:09 18,2 16,4 18,0 89,0 3,1 238 - 10,4 259 1.008,1
11:08 18,2 16,4 18,0 89,0 3,3 237 - 10,4 269 1.008,1
11:07 18,1 16,3 17,9 89,0 3,4 237 - 10,4 243 1.008,1
11:06 18,1 16,3 17,9 89,0 3,6 236 - 10,4 196 1.008,1
11:05 18,1 16,3 17,9 89,0 3,7 236 - 10,4 189 1.008,1
11:04 18,1 16,3 17,9 89,0 3,8 235 - 10,4 245 1.008,1
11:03 18,1 16,3 17,9 89,0 4,0 235 - 10,4 275 1.008,1
11:02 18,1 16,3 17,9 89,0 4,1 235 - 10,4 240 1.008,0
11:01 18,0 16,2 17,8 89,0 4,1 235 - 10,4 233 1.008,0
11:00 18,0 16,2 17,8 89,0 4,1 235 - 10,4 266 1.008,0
 
10:59 17,9 16,1 17,7 89,0 4,1 235 - 10,4 297 1.008,0
10:58 17,9 16,1 17,7 89,0 4,1 236 - 10,4 337 1.008,0
10:57 17,9 16,1 17,7 89,0 4,0 236 - 10,4 335 1.008,1
10:56 17,9 16,1 17,7 89,0 3,9 237 - 10,4 305 1.008,1
10:55 17,9 16,1 17,7 89,0 3,9 238 - 10,4 261 1.008,1
10:54 17,9 16,1 17,7 89,0 3,9 238 - 10,4 215 1.008,0
10:53 17,9 16,1 17,7 89,0 3,8 238 - 10,4 197 1.008,0
10:52 17,9 16,1 17,7 89,0 3,8 239 - 10,4 205 1.008,0
10:51 17,9 16,1 17,7 89,0 3,9 239 - 10,4 223 1.008,0
10:50 17,9 16,1 17,7 89,0 4,0 240 - 10,4 208 1.008,0
10:49 17,9 16,1 17,7 89,0 4,1 240 - 10,4 222 1.007,9
10:48 17,9 16,1 17,7 89,0 4,2 240 - 10,4 232 1.007,9
10:47 17,9 16,1 17,7 89,0 4,3 240 - 10,4 240 1.007,9
10:46 17,8 16,0 17,6 89,0 4,4 240 - 10,4 277 1.007,9
10:45 17,9 16,1 17,7 89,0 4,4 240 - 10,4 275 1.007,9
10:44 17,8 16,0 17,6 89,0 4,4 240 - 10,4 254 1.007,9
10:43 17,8 16,0 17,6 89,0 4,4 239 - 10,4 277 1.007,9
10:42 17,8 16,0 17,6 89,0 4,5 239 - 10,4 297 1.007,9
10:41 17,8 16,0 17,6 89,0 4,5 238 - 10,4 277 1.007,9
10:40 17,8 16,0 17,6 89,0 4,6 238 - 10,4 269 1.007,8
10:39 17,8 16,0 17,6 89,0 4,6 237 - 10,4 277 1.007,8
10:38 17,8 16,0 17,6 89,0 4,7 236 - 10,4 273 1.007,9
10:37 17,8 16,0 17,6 89,0 4,8 236 - 10,4 263 1.007,9
10:36 17,7 15,9 17,5 89,0 4,8 236 - 10,4 264 1.007,8
10:35 17,7 15,9 17,5 89,0 4,8 235 - 10,4 282 1.007,8
10:34 17,7 16,0 17,6 89,8 4,8 235 - 10,4 305 1.007,8
10:33 17,7 15,9 17,5 89,1 4,8 235 - 10,4 310 1.007,7
10:32 17,7 15,9 17,5 89,0 4,7 235 - 10,4 291 1.007,7
10:31 17,7 15,9 17,5 89,4 4,6 235 - 10,4 271 1.007,8
10:30 17,7 16,0 17,6 90,0 4,5 235 - 10,4 265 1.007,8
10:29 17,7 15,9 17,5 89,4 4,4 235 - 10,4 260 1.007,7
10:28 17,6 15,8 17,4 89,0 4,3 236 - 10,4 236 1.007,7
10:27 17,7 16,0 17,6 89,9 4,3 237 - 10,4 231 1.007,7
10:26 17,6 15,9 17,5 89,8 4,3 237 - 10,4 227 1.007,7
10:25 17,6 15,8 17,4 89,0 4,4 238 - 10,4 225 1.007,7
10:24 17,6 15,8 17,4 89,0 4,4 239 - 10,4 213 1.007,7
10:23 17,6 15,8 17,4 89,0 4,4 240 - 10,4 190 1.007,6
10:22 17,6 15,8 17,4 89,0 4,5 241 - 10,4 185 1.007,6
10:21 17,6 15,8 17,4 89,0 4,5 242 - 10,4 190 1.007,6
10:20 17,6 15,8 17,4 89,3 4,6 243 - 10,4 196 1.007,6
10:19 17,7 16,0 17,6 90,0 4,6 244 - 10,4 196 1.007,6
10:18 17,7 16,0 17,6 90,0 4,6 245 - 10,4 191 1.007,5
10:17 17,7 16,0 17,6 90,0 4,6 246 - 10,4 185 1.007,5
10:16 17,7 16,0 17,6 90,0 4,7 247 - 10,4 194 1.007,5
10:15 17,7 16,0 17,6 90,0 4,8 248 - 10,4 205 1.007,5
10:14 17,6 15,9 17,5 89,8 4,8 248 - 10,4 211 1.007,5
10:13 17,6 15,8 17,4 89,0 4,9 249 - 10,4 213 1.007,5
10:12 17,6 15,9 17,5 89,6 5,0 249 - 10,4 220 1.007,4
10:11 17,6 15,9 17,5 90,0 5,0 250 - 10,4 222 1.007,4
10:10 17,6 15,9 17,5 90,0 5,0 251 - 10,4 222 1.007,4
10:09 17,6 15,9 17,5 90,0 5,0 251 - 10,4 249 1.007,3
10:08 17,6 15,9 17,5 90,0 5,0 252 - 10,4 271 1.007,3
10:07 17,6 15,9 17,5 90,0 5,1 252 - 10,4 276 1.007,4
10:06 17,6 15,9 17,5 90,0 5,2 253 - 10,4 276 1.007,4
10:05 17,6 15,9 17,5 90,0 5,4 253 - 10,4 261 1.007,4
10:04 17,6 15,9 17,5 90,0 5,5 253 - 10,4 242 1.007,4
10:03 17,6 15,9 17,5 90,0 5,6 253 - 10,4 240 1.007,4
10:02 17,6 15,9 17,5 90,0 5,5 254 - 10,4 228 1.007,4
10:01 17,6 15,9 17,5 90,0 5,5 253 - 10,4 210 1.007,4
10:00 17,6 15,9 17,5 90,0 5,4 253 - 10,4 200 1.007,5
 
09:59 17,6 15,9 17,5 90,0 5,2 253 - 10,4 209 1.007,5
09:58 17,7 16,0 17,6 90,0 5,0 252 - 10,4 203 1.007,4
09:57 17,7 16,0 17,6 90,0 4,9 252 - 10,4 188 1.007,4
09:56 17,7 16,0 17,6 90,0 4,8 252 - 10,4 188 1.007,4
09:55 17,7 16,0 17,6 90,0 4,7 251 - 10,4 198 1.007,3
09:54 17,7 16,0 17,6 90,0 4,6 250 - 10,4 189 1.007,4
09:53 17,7 16,0 17,6 90,0 4,4 249 - 10,4 171 1.007,4
09:52 17,8 16,2 17,7 90,1 4,3 248 - 10,4 160 1.007,4
09:51 17,8 16,3 17,3 91,0 4,1 247 - 10,4 158 1.007,4
09:50 17,8 16,3 17,3 91,0 4,0 245 - 10,4 168 1.007,4
09:49 17,8 16,3 17,3 91,0 3,9 243 - 10,4 179 1.007,5
09:48 17,8 16,3 17,3 91,0 3,9 241 - 10,4 165 1.007,5
09:47 17,8 16,2 17,8 90,3 3,9 239 - 10,4 135 1.007,5
09:46 17,8 16,1 17,7 90,0 3,9 237 - 10,4 123 1.007,5
09:45 17,8 16,1 17,7 90,0 3,9 235 - 10,4 118 1.007,4
09:44 17,8 16,1 17,7 90,0 3,9 233 - 10,4 125 1.007,4
09:43 17,8 16,2 17,8 90,5 3,9 232 - 10,4 127 1.007,4
09:42 17,8 16,2 17,8 90,4 4,0 230 - 10,4 120 1.007,3
09:41 17,8 16,1 17,7 90,0 4,1 229 - 10,4 114 1.007,3
09:40 17,8 16,3 17,3 90,9 4,1 228 - 10,4 114 1.007,3
09:39 17,8 16,1 17,7 90,0 4,3 228 - 10,4 118 1.007,3
09:38 17,7 16,1 17,7 90,4 4,3 228 - 10,4 126 1.007,3
09:37 17,7 16,2 17,2 91,0 4,3 228 - 10,4 266 1.007,2
09:36 17,7 16,2 17,2 91,0 4,1 229 - 10,4 289 1.007,2
09:35 17,7 16,2 17,2 91,0 3,9 229 - 10,4 285 1.007,2
09:34 17,7 16,2 17,2 91,0 3,8 230 - 10,4 298 1.007,2
09:33 17,7 16,2 17,2 91,0 3,7 231 - 10,4 285 1.007,1
09:32 17,7 16,2 17,2 91,0 3,7 232 - 10,4 243 1.007,0
09:31 17,6 16,1 17,1 91,0 4,0 233 - 10,4 210 1.007,0
09:30 17,7 16,2 17,2 91,0 4,3 233 - 10,4 171 1.007,0
09:29 17,7 16,2 17,2 91,0 4,6 234 - 10,4 154 1.007,0
09:28 17,7 16,2 17,2 91,2 4,7 235 - 10,4 136 1.006,9
09:27 17,7 16,4 17,3 92,0 4,7 236 - 10,4 111 1.007,0
09:26 17,7 16,4 17,3 92,0 4,5 236 - 10,4 99 1.007,0
09:25 17,7 16,4 17,3 92,0 4,1 237 - 10,4 103 1.007,0
09:24 17,7 16,4 17,3 92,0 3,6 237 - 10,4 101 1.007,0
09:23 17,7 16,4 17,3 92,0 3,3 238 - 10,4 107 1.007,0
09:22 17,7 16,4 17,3 92,0 3,2 238 - 10,4 105 1.007,0
09:21 17,7 16,4 17,3 92,0 3,1 238 - 10,4 90 1.007,0
09:20 17,8 16,5 17,4 92,0 3,1 238 - 10,4 92 1.007,0
09:19 17,8 16,5 17,4 92,0 3,0 238 - 10,4 104 1.007,0
09:18 17,8 16,5 17,4 92,0 3,0 237 - 10,4 105 1.007,1
09:17 17,8 16,5 17,4 92,0 3,0 236 - 10,4 87 1.007,1
09:16 17,7 16,4 17,3 92,0 2,9 236 - 10,4 95 1.007,1
09:15 17,7 16,4 17,3 92,0 2,8 235 - 10,4 111 1.007,1
09:14 17,7 16,4 17,3 92,0 2,9 235 - 10,4 119 1.007,1
09:13 17,7 16,4 17,3 92,0 3,0 235 - 10,4 135 1.007,0
09:12 17,7 16,4 17,3 92,0 3,0 235 - 10,4 156 1.007,0
09:11 17,7 16,4 17,3 92,0 3,1 236 - 10,4 165 1.007,0
09:10 17,7 16,4 17,3 92,0 3,0 237 - 10,4 162 1.007,0
09:09 17,7 16,4 17,3 92,0 3,0 238 - 10,4 165 1.006,9
09:08 17,7 16,4 17,3 92,0 2,9 239 - 10,4 181 1.006,9
09:07 17,6 16,3 17,2 92,0 2,7 240 - 10,4 212 1.006,9
09:06 17,6 16,4 17,2 92,8 2,6 242 - 10,4 232 1.006,9
09:05 17,6 16,3 17,2 92,1 2,6 243 - 10,4 220 1.006,9
09:04 17,6 16,3 17,2 92,0 2,6 244 - 10,4 193 1.006,8
09:03 17,6 16,3 17,2 92,0 2,6 246 - 10,4 190 1.006,8
09:02 17,6 16,4 17,2 92,5 2,5 247 - 10,4 196 1.006,8
09:01 17,6 16,5 17,2 93,0 2,5 249 - 10,4 228 1.006,8
09:00 17,6 16,5 17,2 93,0 2,5 251 - 10,4 206 1.006,7
 
08:59 17,5 16,4 17,1 93,0 2,5 253 - 10,4 170 1.006,7
08:58 17,6 16,5 17,2 93,0 2,6 256 - 10,4 151 1.006,6
08:57 17,6 16,5 17,2 93,0 2,7 258 - 10,4 133 1.006,6
08:56 17,6 16,5 17,2 93,0 2,7 260 - 10,4 126 1.006,5
08:55 17,5 16,4 17,1 93,0 2,8 262 - 10,4 131 1.006,5
08:54 17,5 16,4 17,1 93,0 2,8 264 - 10,4 153 1.006,5
08:53 17,5 16,4 17,1 93,0 2,7 266 - 10,4 179 1.006,4
08:52 17,5 16,4 17,1 93,0 2,6 268 - 10,4 182 1.006,4
08:51 17,5 16,4 17,1 93,0 2,7 270 - 10,4 164 1.006,4
08:50 17,5 16,4 17,1 93,0 2,8 271 - 10,4 138 1.006,4
08:49 17,5 16,4 17,1 93,0 2,8 273 - 10,4 119 1.006,4
08:48 17,5 16,4 17,1 93,0 2,8 275 - 10,4 125 1.006,3
08:47 17,5 16,4 17,1 93,0 2,8 277 - 10,4 127 1.006,4
08:46 17,5 16,4 17,1 93,0 2,8 279 - 10,4 126 1.006,4
08:45 17,4 16,3 17,0 93,0 2,7 281 - 10,4 142 1.006,4
08:44 17,5 16,4 17,1 93,0 2,7 282 - 10,4 148 1.006,4
08:43 17,5 16,4 17,1 93,0 2,6 284 - 10,4 148 1.006,4
08:42 17,5 16,4 17,1 93,0 2,5 286 - 10,4 131 1.006,3
08:41 17,5 16,4 17,1 93,0 2,5 287 - 10,4 119 1.006,3
08:40 17,6 16,5 17,2 93,0 2,5 288 - 10,4 125 1.006,3
08:39 17,6 16,5 17,2 93,5 2,5 289 - 10,4 135 1.006,3
08:38 17,5 16,5 17,2 94,0 2,6 290 - 10,4 158 1.006,3
08:37 17,5 16,4 17,1 93,4 2,6 292 - 10,4 177 1.006,3
08:36 17,4 16,4 17,1 94,0 2,7 293 - 10,4 154 1.006,3
08:35 17,5 16,5 17,2 94,0 2,8 294 - 10,4 111 1.006,3
08:34 17,5 16,5 17,2 94,0 2,9 296 - 10,4 89 1.006,3
08:33 17,5 16,5 17,2 94,0 3,0 297 - 10,4 94 1.006,3
08:32 17,4 16,4 17,1 94,0 3,1 298 - 10,4 112 1.006,3
08:31 17,4 16,4 17,1 94,0 3,2 298 - 10,4 114 1.006,4
08:30 17,5 16,5 17,2 94,0 3,2 299 - 10,4 105 1.006,4
08:29 17,4 16,4 17,1 94,0 3,1 299 - 10,4 83 1.006,4
08:28 17,4 16,4 17,1 94,0 3,2 299 - 10,4 75 1.006,4
08:27 17,4 16,4 17,1 94,0 3,2 299 - 10,4 64 1.006,3
08:26 17,4 16,4 17,1 94,0 3,1 299 - 10,4 61 1.006,3
08:25 17,4 16,4 17,1 94,0 3,1 300 - 10,4 70 1.006,3
08:24 17,4 16,4 17,1 94,0 3,1 300 - 10,4 90 1.006,3
08:23 17,3 16,3 17,0 94,0 3,1 301 - 10,4 103 1.006,2
08:22 17,3 16,3 17,0 94,0 3,0 301 - 10,4 93 1.006,2
08:21 17,3 16,3 17,0 94,0 3,0 302 - 10,4 82 1.006,2
08:20 17,3 16,3 17,0 94,0 2,9 303 - 10,4 83 1.006,2
08:19 17,3 16,3 17,0 94,0 2,8 304 - 10,4 78 1.006,2
08:17 17,4 16,4 17,1 94,0 2,8 304 - 10,4 88 1.006,1
08:16 17,4 16,4 17,1 94,0 2,7 305 - 10,4 95 1.006,1
08:15 17,3 16,3 17,0 94,0 2,8 306 - 10,4 101 1.006,1
08:14 17,3 16,3 17,0 94,0 2,8 307 - 10,4 115 1.006,1
08:13 17,3 16,3 17,0 94,0 2,8 308 - 10,4 103 1.006,1
08:12 17,3 16,3 17,0 94,0 2,9 309 - 10,4 104 1.006,1
08:11 17,3 16,3 17,0 94,0 3,0 310 - 10,4 112 1.006,1
08:10 17,3 16,3 17,0 94,0 3,0 312 - 10,4 117 1.006,0
08:09 17,3 16,3 17,0 94,0 3,1 313 - 10,4 126 1.006,0
08:08 17,3 16,3 17,0 94,0 3,1 314 - 10,4 123 1.006,0
08:07 17,3 16,3 17,0 94,0 3,2 315 - 10,4 122 1.005,9
08:06 17,3 16,3 17,0 94,0 3,3 316 - 10,4 154 1.005,9
08:05 17,3 16,4 17,0 94,3 3,4 317 - 10,4 167 1.005,9
08:04 17,3 16,5 17,0 95,0 3,4 318 - 10,4 163 1.005,9
08:03 17,3 16,5 17,0 95,0 3,5 320 - 10,4 152 1.005,9
08:02 17,3 16,5 17,0 95,0 3,5 321 - 10,4 142 1.005,9
08:01 17,3 16,5 17,0 95,0 3,6 322 - 10,4 146 1.005,8
08:00 17,3 16,5 17,0 95,0 3,6 323 - 10,4 158 1.005,8
 
07:59 17,3 16,5 17,0 95,0 3,7 325 - 10,4 164 1.005,7
07:58 17,3 16,5 17,0 95,0 3,8 326 - 10,4 171 1.005,7
07:57 17,3 16,5 17,0 95,0 3,9 327 - 10,4 157 1.005,7
07:56 17,3 16,5 17,0 95,0 3,9 327 - 10,4 149 1.005,7
07:55 17,4 16,6 17,1 95,0 3,9 328 - 10,4 134 1.005,7
07:54 17,4 16,6 17,1 95,0 3,9 328 - 10,4 123 1.005,7
07:53 17,4 16,6 17,1 95,0 3,8 328 - 10,4 120 1.005,8
07:52 17,3 16,5 17,0 95,0 3,8 328 - 10,4 120 1.005,8
07:51 17,3 16,5 17,0 95,0 3,9 328 - 10,4 116 1.005,8
07:50 17,3 16,5 17,0 95,0 3,9 328 - 10,4 115 1.005,8
07:49 17,3 16,5 17,0 95,0 4,0 327 - 10,4 121 1.005,8
07:48 17,3 16,5 17,0 95,0 4,2 327 - 10,4 127 1.005,8
07:47 17,3 16,5 17,0 95,0 4,3 326 - 10,4 129 1.005,8
07:46 17,3 16,5 17,0 95,0 4,5 326 - 10,4 156 1.005,8
07:45 17,4 16,6 17,1 95,0 4,6 325 - 10,4 162 1.005,8
07:44 17,4 16,6 17,1 95,0 4,7 324 - 10,4 158 1.005,8
07:43 17,4 16,6 17,1 95,0 4,7 323 - 10,4 158 1.005,7
07:42 17,5 16,7 17,2 95,0 4,7 323 - 10,4 208 1.005,7
07:41 17,5 16,7 17,2 95,0 4,7 322 - 10,4 179 1.005,6
07:40 17,5 16,7 17,2 95,0 4,7 320 - 10,4 129 1.005,7
07:39 17,5 16,7 17,2 95,0 4,7 319 - 10,4 100 1.005,7
07:38 17,5 16,7 17,2 95,0 4,7 318 - 10,4 98 1.005,7
07:37 17,5 16,7 17,2 95,0 4,8 317 - 10,4 88 1.005,7
07:36 17,5 16,7 17,2 95,0 4,9 317 - 10,4 78 1.005,6
07:35 17,5 16,7 17,2 95,0 5,0 316 - 10,4 80 1.005,6
07:34 17,5 16,7 17,2 95,0 5,1 316 - 10,4 81 1.005,6
07:33 17,4 16,6 17,1 95,0 5,1 316 - 10,4 95 1.005,6
07:32 17,5 16,7 17,2 95,0 5,0 316 - 10,4 113 1.005,6
07:31 17,5 16,7 17,2 95,0 5,0 316 - 10,4 96 1.005,7
07:30 17,5 16,7 17,2 95,0 5,0 316 - 10,4 75 1.005,7
07:29 17,4 16,6 17,1 95,0 5,0 316 - 10,4 56 1.005,7
07:28 17,3 16,5 17,0 95,0 4,9 316 - 10,4 45 1.005,8
07:27 17,3 16,5 17,0 95,0 4,9 316 - 10,4 50 1.005,8
07:26 17,3 16,5 17,0 95,0 4,9 316 - 10,4 64 1.005,7
07:25 17,3 16,5 17,0 95,0 4,8 316 - 10,4 75 1.005,6
07:24 17,3 16,5 17,0 95,0 4,7 315 - 10,4 81 1.005,6
07:23 17,4 16,6 17,1 95,0 4,7 315 - 10,4 92 1.005,5
07:22 17,3 16,5 17,0 95,0 4,6 315 - 10,4 88 1.005,5
07:21 17,3 16,5 17,0 95,0 4,6 315 - 10,4 75 1.005,5
07:20 17,3 16,5 17,0 95,0 4,5 314 - 10,4 80 1.005,5
07:19 17,3 16,5 17,0 95,0 4,5 314 - 10,4 86 1.005,4
07:18 17,2 16,4 16,9 95,0 4,5 314 - 10,4 98 1.005,4
07:17 17,3 16,5 17,0 95,0 4,6 313 - 10,4 105 1.005,4
07:16 17,3 16,5 17,0 95,0 4,6 313 - 10,4 91 1.005,3
07:15 17,3 16,5 17,0 95,0 4,5 312 - 10,4 78 1.005,4
07:14 17,3 16,5 17,0 95,0 4,5 311 - 10,4 73 1.005,5
07:13 17,3 16,5 17,0 95,0 4,5 310 - 10,4 68 1.005,5
07:12 17,3 16,5 17,0 95,0 4,5 309 - 10,4 63 1.005,5
07:11 17,3 16,5 17,0 95,0 4,6 309 - 10,4 68 1.005,5
07:10 17,3 16,5 17,0 95,0 4,7 308 - 10,4 79 1.005,6
07:09 17,3 16,5 17,0 95,0 4,9 307 - 10,4 80 1.005,6
07:08 17,3 16,5 17,0 95,0 4,9 306 - 10,4 72 1.005,6
07:07 17,3 16,5 17,0 95,0 5,0 305 - 10,4 63 1.005,6
07:06 17,3 16,5 17,0 95,0 5,1 305 - 10,4 55 1.005,6
07:05 17,3 16,6 17,1 95,6 5,1 304 - 10,4 50 1.005,6
07:04 17,3 16,7 17,1 96,0 5,1 304 - 10,4 51 1.005,6
07:03 17,3 16,7 17,1 96,0 5,1 304 - 10,4 49 1.005,6
07:02 17,3 16,7 17,1 96,0 5,2 303 - 10,4 38 1.005,6
07:01 17,3 16,7 17,1 96,0 5,2 303 - 10,4 24 1.005,5
07:00 17,3 16,7 17,1 96,0 5,1 303 - 10,4 17 1.005,6
 
06:59 17,3 16,7 17,1 96,0 5,0 303 - 10,4 19 1.005,6
06:58 17,3 16,7 17,1 96,0 5,0 303 - 10,4 25 1.005,6
06:57 17,2 16,6 17,0 96,0 5,0 303 - 10,4 25 1.005,6
06:56 17,2 16,6 17,0 96,0 5,0 302 - 10,4 25 1.005,6
06:55 17,2 16,6 17,0 96,0 5,0 302 - 10,4 22 1.005,6
06:54 17,2 16,6 17,0 96,0 5,1 302 - 10,4 24 1.005,5
06:53 17,2 16,6 17,0 96,0 5,2 302 - 10,4 31 1.005,5
06:52 17,2 16,6 17,0 96,0 5,2 302 - 10,4 30 1.005,5
06:51 17,3 16,7 17,1 96,0 5,2 302 - 10,4 25 1.005,5
06:50 17,3 16,7 17,1 96,0 5,3 302 - 10,4 24 1.005,5
06:49 17,2 16,6 17,0 96,0 5,4 302 - 10,4 26 1.005,4
06:48 17,2 16,6 17,0 96,0 5,5 302 - 10,4 24 1.005,4
06:47 17,2 16,6 17,0 96,0 5,7 302 - 10,4 20 1.005,4
06:46 17,2 16,6 17,0 96,0 5,8 302 - 10,4 23 1.005,4
06:45 17,2 16,6 17,0 96,0 5,8 302 - 10,4 21 1.005,4
06:43 17,3 16,7 17,1 96,0 5,7 302 - 10,4 12 1.005,3
06:42 17,4 16,8 17,2 96,0 5,6 302 - 10,4 12 1.005,3
06:41 17,4 16,8 17,2 96,0 5,4 301 - 10,4 12 1.005,3
06:40 17,3 16,7 17,1 96,0 5,2 301 - 10,4 11 1.005,3
06:39 17,2 16,6 17,0 96,0 5,1 301 - 10,4 9 1.005,3
06:38 17,2 16,6 17,0 96,0 5,1 301 - 10,4 9 1.005,3
06:37 17,2 16,6 17,0 96,0 5,1 301 - 10,4 9 1.005,2
06:36 17,2 16,6 17,0 96,0 5,1 301 - 10,4 9 1.005,1
06:35 17,3 16,7 17,1 96,0 5,1 301 - 10,4 9 1.005,1
06:34 17,3 16,7 17,1 96,0 5,2 301 - 10,4 9 1.005,0
06:33 17,3 16,7 17,1 96,0 5,3 301 - 10,4 8 1.005,0
06:32 17,3 16,7 17,1 96,0 5,5 301 - 10,4 7 1.005,0
06:31 17,3 16,7 17,1 96,0 5,7 301 - 10,4 6 1.005,0
06:30 17,3 16,7 17,1 96,0 5,9 301 - 10,4 5 1.005,0
06:29 17,3 16,7 17,1 96,0 6,0 301 - 10,4 5 1.005,0
06:28 17,3 16,7 17,1 96,0 5,9 300 - 10,4 6 1.005,0
06:27 17,3 16,7 17,1 96,0 5,6 299 - 10,4 10 1.005,1
06:26 17,3 16,7 17,1 96,0 5,1 299 - 10,4 12 1.005,0
06:25 17,3 16,7 17,1 96,0 4,6 298 - 10,4 10 1.005,0
06:24 17,3 16,7 17,1 96,0 4,1 296 - 10,4 9 1.005,0
06:23 17,3 16,7 17,1 96,0 3,7 295 - 10,4 7 1.005,1
06:22 17,2 16,6 17,0 96,0 3,3 293 - 10,4 7 1.005,0
06:21 17,2 16,6 17,0 96,0 2,8 291 - 10,4 5 1.005,0
06:20 17,1 16,5 16,9 96,0 2,4 289 - 10,4 5 1.005,0
06:19 17,1 16,5 16,9 96,0 2,1 286 - 10,4 5 1.005,0
06:18 17,1 16,5 16,9 96,0 1,8 283 - 10,4 5 1.005,0
06:17 17,1 16,5 16,9 96,0 1,6 279 - 10,4 8 1.005,0
06:16 17,1 16,5 16,9 96,0 1,5 274 - 10,4 11 1.005,0
06:15 17,1 16,5 16,9 96,0 1,3 269 - 10,4 12 1.005,0
06:14 17,1 16,5 16,9 96,0 1,2 263 - 10,4 12 1.005,0
06:13 17,1 16,5 16,9 96,0 1,0 257 - 10,4 12 1.005,0
06:12 17,1 16,5 16,9 96,0 0,8 251 - 10,4 11 1.005,1
06:11 17,1 16,5 16,9 96,0 0,7 247 - 10,4 11 1.005,0
06:10 17,1 16,5 16,9 96,0 0,6 243 - 10,4 9 1.004,9
06:09 17,1 16,5 16,9 96,0 0,6 241 - 10,4 9 1.005,0
06:08 17,1 16,5 16,9 96,0 0,6 241 - 10,4 8 1.005,0
06:07 17,1 16,5 16,9 96,0 0,7 242 - 10,4 7 1.005,0
06:06 17,1 16,5 16,9 96,0 0,8 243 - 10,4 5 1.005,0
06:05 17,1 16,5 16,9 96,0 1,0 244 - 10,4 4 1.005,0
06:04 17,1 16,5 16,9 96,0 1,1 246 - 10,4 0 1.005,1
06:03 17,1 16,5 16,9 96,0 1,2 247 - 10,4 0 1.005,1
06:02 17,1 16,5 16,9 96,0 1,4 248 - 10,4 0 1.005,1
06:01 17,1 16,5 16,9 96,0 1,5 248 - 10,4 0 1.005,1
06:00 17,1 16,5 16,9 96,0 1,7 249 - 10,4 0 1.005,1
 
05:59 17,1 16,5 16,9 96,0 1,8 249 - 10,4 0 1.005,1
05:58 17,0 16,4 16,8 96,0 1,8 249 - 10,4 0 1.005,1
05:57 17,0 16,4 16,8 96,0 1,8 249 - 10,4 0 1.005,1
05:56 16,9 16,3 16,7 96,0 1,7 249 - 10,4 0 1.005,0
05:55 16,9 16,3 16,7 96,0 1,6 249 - 10,4 0 1.005,0
05:54 16,9 16,3 16,7 96,0 1,5 248 - 10,4 0 1.005,1
05:53 16,9 16,3 16,7 96,0 1,4 248 - 10,4 0 1.005,1
05:52 16,9 16,3 16,7 96,0 1,4 247 - 10,4 0 1.005,1
05:51 16,9 16,3 16,7 96,0 1,4 246 - 10,4 0 1.005,0
05:50 16,9 16,3 16,7 96,0 1,3 245 - 10,4 0 1.005,0
05:49 16,8 16,2 16,6 96,0 1,3 244 - 10,4 0 1.005,0
05:48 16,8 16,2 16,6 96,0 1,3 243 - 10,4 0 1.005,0
05:47 16,8 16,2 16,6 96,0 1,4 241 - 10,4 0 1.005,0
05:46 16,8 16,2 16,6 96,0 1,4 240 - 10,4 0 1.005,0
05:45 16,8 16,2 16,6 96,0 1,5 239 - 10,4 0 1.005,0
05:44 16,8 16,2 16,6 96,0 1,6 237 - 10,4 0 1.005,1
05:43 16,8 16,2 16,6 96,0 1,6 236 - 10,4 0 1.005,1
05:42 16,8 16,2 16,6 96,0 1,5 235 - 10,4 0 1.005,1
05:41 16,8 16,2 16,6 96,0 1,4 234 - 10,4 0 1.005,1
05:40 16,8 16,2 16,6 96,0 1,2 233 - 10,4 0 1.005,1
05:39 16,8 16,2 16,6 96,0 1,0 232 - 10,4 0 1.005,1
05:38 16,8 16,2 16,6 96,0 0,9 232 - 10,4 0 1.005,1
05:37 16,8 16,2 16,6 96,0 0,8 232 - 10,4 0 1.005,1
05:36 16,8 16,2 16,6 96,0 0,8 232 - 10,4 0 1.005,1
05:35 16,8 16,2 16,6 96,0 0,9 235 - 10,4 0 1.005,1
05:34 16,8 16,2 16,6 96,0 0,8 240 - 10,4 0 1.005,1
05:33 16,8 16,2 16,6 96,0 0,7 248 - 10,4 0 1.005,1
05:32 16,8 16,2 16,6 96,0 0,5 260 - 10,4 0 1.005,1
05:31 16,8 16,2 16,6 96,0 0,4 274 - 10,4 0 1.005,1
05:30 16,8 16,2 16,6 96,0 0,2 284 - 10,4 0 1.005,1
05:29 16,8 16,2 16,6 96,0 0,1 291 - 10,4 0 1.005,2
05:28 16,8 16,2 16,6 96,0 0,3 296 - 10,2 0 1.005,1
05:27 16,8 16,2 16,6 96,0 0,5 298 - 10,0 0 1.005,1
05:26 16,8 16,2 16,6 96,0 0,8 300 - 9,6 0 1.005,1
05:25 16,9 16,3 16,7 96,0 1,2 301 - 9,6 0 1.005,0
05:24 16,8 16,2 16,6 96,0 1,5 302 - 9,4 0 1.005,0
05:23 16,8 16,2 16,6 96,0 1,9 303 - 9,0 0 1.005,1
05:22 16,8 16,2 16,6 96,0 2,3 304 - 9,0 0 1.005,1
05:21 16,8 16,2 16,6 96,0 2,5 304 - 8,8 0 1.005,1
05:20 16,8 16,2 16,6 96,0 2,7 305 - 8,8 0 1.005,1
05:19 16,7 16,1 16,5 96,0 2,7 305 - 8,8 0 1.005,1
05:18 16,7 16,1 16,5 96,0 2,6 304 - 8,8 0 1.005,1
05:17 16,7 16,1 16,5 96,0 2,4 304 - 8,8 0 1.005,0
05:16 16,7 16,1 16,5 96,0 2,1 303 - 8,8 0 1.005,0
05:15 16,7 16,1 16,5 96,0 1,8 301 - 8,8 0 1.005,0
05:14 16,7 16,1 16,5 96,0 1,6 300 - 8,8 0 1.005,0
05:13 16,7 16,1 16,5 96,0 1,3 299 - 8,8 0 1.005,0
05:12 16,6 16,0 16,4 96,0 1,1 298 - 8,8 0 1.005,0
05:11 16,6 16,0 16,4 96,0 1,0 298 - 8,8 0 1.005,0
05:09 16,6 16,0 16,4 96,0 0,9 299 - 8,8 0 1.004,9
05:08 16,6 16,0 16,4 96,0 0,9 300 - 8,8 0 1.004,9
05:07 16,6 16,0 16,4 96,0 1,0 303 - 8,8 0 1.005,0
05:06 16,6 16,0 16,4 96,0 1,2 306 - 8,8 0 1.005,1
05:05 16,6 16,0 16,4 96,0 1,5 309 - 8,8 0 1.005,1
05:04 16,6 16,0 16,4 96,0 1,7 313 - 8,8 0 1.005,1
05:03 16,6 16,0 16,4 96,0 1,8 318 - 8,8 0 1.005,1
05:02 16,5 15,9 16,3 96,0 1,7 323 - 8,8 0 1.005,1
05:01 16,5 15,9 16,3 96,0 1,4 328 - 8,8 0 1.005,0
05:00 16,5 15,9 16,3 96,0 1,1 334 - 8,8 0 1.004,9
 
04:59 16,5 15,9 16,3 96,0 0,9 340 - 8,8 0 1.004,9
04:58 16,5 15,9 16,3 96,0 0,9 348 - 8,8 0 1.004,9
04:57 16,5 15,9 16,3 96,0 0,9 356 - 8,8 0 1.004,8
04:56 16,5 15,9 16,3 96,0 1,1 6 - 8,8 0 1.004,8
04:55 16,5 15,9 16,3 96,0 1,1 17 - 8,8 0 1.004,9
04:54 16,5 15,9 16,3 96,0 1,2 27 - 8,8 0 1.004,9
04:53 16,5 15,9 16,3 96,0 1,2 36 - 8,8 0 1.004,9
04:52 16,5 15,9 16,3 96,0 1,2 43 - 8,8 0 1.004,9
04:51 16,5 15,9 16,3 96,0 1,1 49 - 8,8 0 1.005,0
04:50 16,5 15,9 16,3 96,0 1,0 54 - 8,8 0 1.005,0
04:49 16,5 15,9 16,3 96,0 0,9 58 - 8,8 0 1.005,0
04:48 16,5 15,9 16,3 96,0 0,9 61 - 8,8 0 1.005,0
04:47 16,4 15,8 16,2 96,0 0,9 64 - 8,8 0 1.005,0
04:46 16,4 15,8 16,2 96,0 1,0 66 - 8,8 0 1.005,0
04:45 16,4 15,8 16,2 96,0 1,0 69 - 8,8 0 1.005,1
04:44 16,4 15,8 16,2 96,0 1,1 71 - 8,8 0 1.005,1
04:43 16,4 15,8 16,2 96,0 1,1 74 - 8,8 0 1.005,1
04:42 16,5 15,9 16,3 96,0 1,1 77 - 8,8 0 1.005,1
04:41 16,4 15,8 16,2 96,0 1,0 79 - 8,8 0 1.005,1
04:40 16,4 15,8 16,2 96,0 0,9 81 - 8,8 0 1.005,1
04:39 16,4 15,8 16,2 96,0 0,8 83 - 8,8 0 1.005,2
04:38 16,4 15,8 16,2 96,0 0,7 84 - 8,8 0 1.005,2
04:37 16,4 15,8 16,2 96,0 0,7 85 - 8,8 0 1.005,2
04:36 16,4 15,8 16,2 96,0 0,7 86 - 8,8 0 1.005,3
04:35 16,4 15,8 16,2 96,0 0,9 87 - 8,8 0 1.005,3
04:34 16,4 15,8 16,2 96,0 1,1 87 - 8,8 0 1.005,3
04:33 16,4 15,8 16,2 96,0 1,3 88 - 8,8 0 1.005,3
04:32 16,4 15,8 16,2 96,0 1,4 88 - 8,8 0 1.005,3
04:31 16,4 15,8 16,2 96,0 1,6 88 - 8,8 0 1.005,3
04:30 16,4 15,8 16,2 96,0 1,7 87 - 8,8 0 1.005,3
04:29 16,5 15,9 16,3 96,0 1,7 87 - 8,8 0 1.005,2
04:28 16,5 15,9 16,3 96,0 1,7 86 - 8,8 0 1.005,3
04:27 16,4 15,8 16,2 96,0 1,5 85 - 8,4 0 1.005,4
04:26 16,4 15,8 16,2 96,0 1,3 84 - 8,0 0 1.005,5
04:25 16,4 15,8 16,2 96,0 1,1 83 - 7,2 0 1.005,6
04:24 16,4 15,8 16,2 96,0 0,9 82 - 6,8 0 1.005,6
04:23 16,4 15,8 16,2 96,0 0,7 81 - 6,8 0 1.005,5
04:22 16,4 15,8 16,2 96,0 0,6 80 - 6,8 0 1.005,5
04:21 16,4 15,8 16,2 96,0 0,6 79 - 6,6 0 1.005,5
04:20 16,4 15,8 16,2 96,0 0,7 78 - 6,4 0 1.005,5
04:19 16,4 15,8 16,2 96,0 0,7 77 - 6,4 0 1.005,5
04:18 16,4 15,8 16,2 96,0 0,7 77 - 6,4 0 1.005,5
04:17 16,4 15,8 16,2 96,0 0,7 77 - 6,4 0 1.005,5
04:16 16,4 15,8 16,2 96,0 0,7 76 - 6,2 0 1.005,5
04:15 16,4 15,8 16,2 96,0 0,6 76 - 6,0 0 1.005,5
04:14 16,4 15,8 16,2 96,0 0,6 76 - 6,0 0 1.005,5
04:13 16,4 15,8 16,2 96,0 0,6 76 - 6,0 0 1.005,5
04:12 16,4 15,8 16,2 96,0 0,6 76 - 6,0 0 1.005,6
04:11 16,4 15,8 16,2 96,0 0,7 76 - 5,8 0 1.005,6
04:10 16,4 15,8 16,2 96,0 0,8 76 - 5,8 0 1.005,7
04:09 16,4 15,8 16,2 96,0 0,9 76 - 5,8 0 1.005,7
04:08 16,4 15,8 16,2 96,0 1,0 76 - 5,8 0 1.005,7
04:07 16,4 15,8 16,2 96,0 1,1 76 - 5,8 0 1.005,7
04:06 16,3 15,7 16,1 96,0 1,1 75 - 5,8 0 1.005,7
04:05 16,4 15,8 16,2 96,0 1,2 74 - 5,8 0 1.005,7
04:04 16,4 15,8 16,2 96,0 1,2 73 - 5,8 0 1.005,8
04:03 16,4 15,8 16,2 96,0 1,3 72 - 5,8 0 1.005,8
04:02 16,4 15,8 16,2 96,0 1,4 71 - 5,8 0 1.005,9
04:01 16,4 15,8 16,2 96,0 1,5 70 - 5,8 0 1.005,9
04:00 16,4 15,8 16,2 96,0 1,7 70 - 5,8 0 1.005,7
 
03:59 16,4 15,8 16,2 96,0 1,9 69 - 5,8 0 1.005,7
03:58 16,4 15,8 16,2 96,0 2,1 68 - 5,8 0 1.005,6
03:57 16,4 15,8 16,2 96,0 2,3 68 - 5,8 0 1.005,6
03:56 16,4 15,8 16,2 96,0 2,4 67 - 5,8 0 1.005,7
03:55 16,4 15,8 16,2 96,0 2,5 67 - 5,8 0 1.005,7
03:54 16,4 15,8 16,2 96,0 2,5 66 - 5,8 0 1.005,8
03:53 16,4 15,8 16,2 96,0 2,4 66 - 5,8 0 1.005,9
03:52 16,4 15,8 16,2 96,0 2,2 65 - 5,8 0 1.005,9
03:51 16,4 15,8 16,2 96,0 1,9 65 - 5,8 0 1.006,0
03:50 16,4 15,8 16,2 96,0 1,8 64 - 5,8 0 1.006,0
03:49 16,4 15,8 16,2 96,0 1,6 64 - 5,8 0 1.006,0
03:48 16,4 15,8 16,2 96,0 1,4 64 - 5,8 0 1.006,0
03:47 16,4 15,8 16,2 96,0 1,3 64 - 5,8 0 1.006,0
03:46 16,4 15,8 16,2 96,0 1,4 65 - 5,8 0 1.006,1
03:45 16,4 15,8 16,2 96,0 1,3 66 - 5,8 0 1.006,1
03:44 16,4 15,8 16,2 96,0 1,3 67 - 5,8 0 1.006,1
03:43 16,4 15,8 16,2 96,0 1,3 68 - 5,8 0 1.006,1
03:42 16,4 15,8 16,2 96,0 1,4 69 - 5,8 0 1.006,1
03:41 16,4 15,8 16,2 96,0 1,5 70 - 5,8 0 1.006,2
03:40 16,4 15,8 16,2 96,0 1,7 71 - 5,8 0 1.006,1
03:39 16,4 15,8 16,2 96,0 1,9 72 - 5,8 0 1.006,1
03:38 16,4 15,8 16,2 96,0 2,2 72 - 5,8 0 1.006,1
03:37 16,4 15,7 16,2 95,8 2,6 73 - 5,8 0 1.006,0
03:35 16,4 15,6 16,1 95,0 2,8 73 - 5,8 0 1.006,0
03:34 16,4 15,6 16,1 95,0 3,1 73 - 5,8 0 1.006,0
03:33 16,4 15,6 16,1 95,0 3,2 73 - 5,8 0 1.006,0
03:32 16,4 15,6 16,1 95,0 3,2 73 - 5,8 0 1.006,1
03:31 16,4 15,6 16,1 95,0 3,1 73 - 5,8 0 1.006,1
03:30 16,4 15,6 16,1 95,0 3,1 72 - 5,8 0 1.006,1
03:29 16,4 15,6 16,1 95,0 3,0 72 - 5,8 0 1.006,1
03:28 16,4 15,6 16,1 95,0 2,9 70 - 5,8 0 1.006,1
03:27 16,4 15,6 16,1 95,0 2,9 69 - 5,8 0 1.006,1
03:26 16,4 15,6 16,1 95,0 3,0 67 - 5,8 0 1.006,1
03:25 16,4 15,6 16,1 95,0 3,2 65 - 5,8 0 1.006,2
03:24 16,4 15,6 16,1 95,0 3,3 62 - 5,8 0 1.006,2
03:23 16,4 15,7 16,2 95,4 3,4 60 - 5,8 0 1.006,3
03:22 16,4 15,7 16,2 95,4 3,4 57 - 5,8 0 1.006,4
03:21 16,4 15,6 16,1 95,0 3,2 54 - 5,8 0 1.006,4
03:20 16,4 15,6 16,1 95,0 3,0 52 - 5,8 0 1.006,5
03:19 16,4 15,6 16,1 95,0 2,7 49 - 5,8 0 1.006,6
03:18 16,4 15,6 16,1 95,0 2,3 47 - 5,8 0 1.006,7
03:17 16,4 15,6 16,1 95,0 2,0 46 - 5,8 0 1.006,8
03:16 16,3 15,5 16,0 95,0 1,8 44 - 5,8 0 1.006,8
03:15 16,3 15,5 16,0 95,0 1,6 42 - 5,8 0 1.006,8
03:14 16,3 15,5 16,0 95,0 1,4 41 - 5,8 0 1.006,8
03:13 16,3 15,5 16,0 95,0 1,2 39 - 5,8 0 1.006,8
03:12 16,3 15,5 16,0 95,0 1,1 38 - 5,8 0 1.006,8
03:11 16,3 15,5 16,0 95,0 1,2 36 - 5,8 0 1.006,7
03:10 16,3 15,5 16,0 95,0 1,4 35 - 5,8 0 1.006,6
03:09 16,3 15,5 16,0 95,0 1,6 35 - 5,8 0 1.006,6
03:08 16,3 15,5 16,0 95,0 1,7 35 - 5,8 0 1.006,5
03:07 16,3 15,5 16,0 95,0 1,7 36 - 5,8 0 1.006,5
03:06 16,3 15,5 16,0 95,0 1,5 37 - 5,8 0 1.006,6
03:05 16,3 15,5 16,0 95,0 1,4 39 - 5,8 0 1.006,7
03:04 16,3 15,5 16,0 95,0 1,5 41 - 5,8 0 1.006,7
03:03 16,3 15,5 16,0 95,0 1,6 43 - 5,8 0 1.006,7
03:02 16,3 15,5 16,0 95,0 1,8 46 - 5,8 0 1.006,6
03:01 16,2 15,4 15,9 95,0 1,9 48 - 5,8 0 1.006,5
03:00 16,2 15,4 15,9 95,0 2,0 50 - 5,8 0 1.006,6
 
02:59 16,2 15,4 15,9 95,0 1,9 51 - 5,8 0 1.006,8
02:58 16,2 15,4 15,9 95,0 1,5 53 - 5,8 0 1.007,0
02:57 16,2 15,4 15,9 95,0 1,1 55 - 5,8 0 1.007,1
02:56 16,2 15,4 15,9 95,0 0,8 58 - 5,8 0 1.007,1
02:55 16,2 15,4 15,9 95,0 0,7 61 - 5,8 0 1.007,1
02:54 16,2 15,4 15,9 95,0 0,9 64 - 5,8 0 1.007,0
02:53 16,2 15,4 15,9 95,0 1,3 68 - 5,8 0 1.007,0
02:52 16,2 15,4 15,9 95,0 1,8 71 - 5,8 0 1.006,9
02:51 16,2 15,4 15,9 95,0 2,2 74 - 5,8 0 1.006,8
02:50 16,2 15,4 15,9 95,0 2,4 77 - 5,8 0 1.006,8
02:49 16,2 15,4 15,9 95,0 2,4 78 - 5,8 0 1.006,9
02:48 16,3 15,5 16,0 95,0 2,1 78 - 5,8 0 1.006,9
02:47 16,2 15,4 15,9 95,0 1,8 77 - 5,8 0 1.006,9
02:46 16,2 15,4 15,9 95,0 1,5 76 - 5,8 0 1.006,9
02:45 16,2 15,4 15,9 95,0 1,5 74 - 5,8 0 1.006,9
02:44 16,2 15,4 15,9 95,0 1,7 72 - 5,8 0 1.006,9
02:43 16,2 15,4 15,9 95,0 2,1 71 - 5,8 0 1.006,9
02:42 16,2 15,4 15,9 95,0 2,6 69 - 5,8 0 1.007,0
02:41 16,2 15,4 15,9 95,0 3,1 67 - 5,8 0 1.007,0
02:40 16,2 15,4 15,9 95,0 3,6 65 - 5,8 0 1.006,9
02:39 16,2 15,4 15,9 95,0 3,9 63 - 5,8 0 1.006,9
02:38 16,2 15,4 15,9 95,0 3,8 62 - 5,8 0 1.006,8
02:37 16,1 15,3 15,8 95,0 3,6 60 - 5,8 0 1.006,8
02:36 16,1 15,3 15,8 95,0 3,5 58 - 5,8 0 1.006,8
02:35 16,1 15,3 15,8 95,0 3,4 57 - 5,8 0 1.006,8
02:34 16,1 15,3 15,8 95,0 3,3 56 - 5,8 0 1.006,8
02:33 16,1 15,3 15,8 95,0 3,4 55 - 5,8 0 1.006,8
02:32 16,1 15,3 15,8 95,0 3,5 54 - 5,8 0 1.006,7
02:31 16,1 15,3 15,8 95,0 3,7 54 - 5,8 0 1.006,7
02:30 16,1 15,3 15,8 95,0 3,9 54 - 5,8 0 1.006,8
02:29 16,1 15,3 15,8 95,0 4,0 53 - 5,8 0 1.006,8
02:28 16,1 15,3 15,8 95,0 4,1 53 - 5,8 0 1.006,8
02:27 16,1 15,3 15,8 95,0 4,2 53 - 5,8 0 1.006,7
02:26 16,0 15,2 15,7 95,0 4,3 53 - 5,8 0 1.006,7
02:25 16,0 15,2 15,7 95,0 4,4 53 - 5,8 0 1.006,8
02:24 16,0 15,2 15,7 95,0 4,4 52 - 5,8 0 1.006,9
02:23 16,0 15,2 15,7 95,0 4,3 52 - 5,8 0 1.006,9
02:22 16,0 15,2 15,7 95,0 4,2 52 - 5,8 0 1.006,9
02:21 16,0 15,2 15,7 95,0 4,1 52 - 5,6 0 1.007,0
02:20 16,0 15,2 15,7 95,0 4,1 52 - 5,6 0 1.007,0
02:19 16,0 15,2 15,7 95,0 4,0 52 - 5,6 0 1.006,9
02:18 16,0 15,2 15,7 95,0 4,1 52 - 5,6 0 1.006,9
02:17 16,0 15,2 15,7 95,0 4,2 52 - 5,6 0 1.006,9
02:16 16,0 15,2 15,7 95,0 4,2 52 - 5,6 0 1.006,9
02:15 16,0 15,2 15,7 95,0 4,3 52 - 5,6 0 1.006,9
02:14 16,0 15,2 15,7 95,0 4,4 51 - 5,6 0 1.007,0
02:13 15,9 15,1 15,6 95,0 4,4 50 - 5,6 0 1.007,1
02:12 16,0 15,2 15,7 95,0 4,4 50 - 5,6 0 1.007,1
02:11 16,0 15,2 15,7 95,0 4,3 49 - 5,6 0 1.007,2
02:10 16,0 15,2 15,7 95,0 4,3 48 - 5,6 0 1.007,2
02:09 16,0 15,2 15,7 95,0 4,3 47 - 5,6 0 1.007,3
02:08 16,0 15,2 15,7 95,0 4,3 47 - 5,6 0 1.007,3
02:07 16,1 15,3 15,8 95,0 4,4 47 - 5,4 0 1.007,3
02:06 16,1 15,3 15,8 95,0 4,5 46 - 5,4 0 1.007,1
02:05 16,1 15,3 15,8 95,0 4,7 46 - 5,4 0 1.007,1
02:04 16,1 15,3 15,8 95,0 4,8 46 - 5,4 0 1.007,2
02:03 16,1 15,3 15,8 95,0 4,9 45 - 5,4 0 1.007,4
02:02 16,1 15,3 15,8 95,0 4,9 45 - 5,4 0 1.007,5
02:01 16,0 15,1 15,7 94,6 4,9 45 - 5,4 0 1.007,6
02:00 16,0 15,0 15,7 94,0 4,8 45 - 5,4 0 1.007,7
 
01:59 16,0 15,0 15,7 94,0 4,7 45 - 5,4 0 1.007,8
01:58 16,0 15,0 15,7 94,0 4,7 44 - 5,4 0 1.007,8
01:57 16,0 15,0 15,7 94,0 4,8 44 - 5,4 0 1.007,8
01:56 16,0 15,0 15,7 94,0 4,8 44 - 5,2 0 1.007,8
01:55 16,0 15,0 15,7 94,0 4,8 43 - 5,2 0 1.007,8
01:54 16,0 15,0 15,7 94,0 4,7 43 - 5,2 0 1.007,9
01:53 16,1 15,1 15,8 94,0 4,5 42 - 5,2 0 1.008,0
01:52 16,1 15,1 15,8 94,0 4,2 41 - 5,2 0 1.008,1
01:51 16,1 15,1 15,8 94,0 3,9 39 - 5,2 0 1.008,2
01:50 16,1 15,1 15,8 94,0 3,5 37 - 5,2 0 1.008,3
01:49 16,2 15,2 15,9 94,0 3,2 35 - 5,2 0 1.008,4
01:48 16,2 15,2 15,9 94,0 2,8 33 - 5,2 0 1.008,4
01:47 16,2 15,2 15,9 94,0 2,5 31 - 5,2 0 1.008,5
01:46 16,1 15,1 15,8 94,0 2,4 28 - 5,2 0 1.008,4
01:45 16,1 15,1 15,8 94,0 2,4 26 - 5,2 0 1.008,1
01:44 16,1 15,1 15,8 94,0 2,4 24 - 5,2 0 1.008,4
01:43 16,1 15,1 15,8 94,0 2,4 23 - 5,2 0 1.008,6
01:42 16,1 15,1 15,8 94,0 2,3 23 - 5,2 0 1.008,6
01:41 16,1 15,1 15,8 94,0 2,1 24 - 5,0 0 1.008,6
01:40 16,0 15,0 15,7 94,0 1,9 25 - 4,8 0 1.008,6
01:39 16,0 15,0 15,7 94,0 1,6 29 - 4,8 0 1.008,7
01:38 16,0 15,0 15,7 94,0 1,3 33 - 4,8 0 1.008,8
01:37 16,0 15,0 15,7 94,0 1,1 38 - 4,8 0 1.009,0
01:36 16,0 15,0 15,7 94,0 1,3 44 - 4,4 0 1.009,0
01:35 16,1 15,1 15,8 94,0 1,8 51 - 4,2 0 1.008,9
01:34 16,1 15,0 15,7 93,1 2,3 58 - 4,0 0 1.008,7
01:33 16,1 15,0 15,7 93,0 2,8 65 - 3,8 0 1.008,7
01:32 16,1 15,0 15,7 93,0 3,1 72 - 3,6 0 1.008,8
01:31 16,1 15,0 15,7 93,0 3,2 77 - 3,6 0 1.008,9
01:30 16,1 15,0 15,7 93,0 3,3 82 - 3,2 0 1.009,0
01:29 16,1 15,0 15,7 93,0 3,4 85 - 3,0 0 1.009,1
01:28 16,2 15,1 15,8 93,0 3,4 89 - 2,8 0 1.009,2
01:27 16,2 15,1 15,8 93,0 3,5 92 - 2,8 0 1.009,3
01:26 16,2 15,1 15,8 93,0 3,5 94 - 2,8 0 1.009,4
01:25 16,2 15,1 15,8 93,0 3,6 97 - 2,8 0 1.009,5
01:24 16,2 15,1 15,8 93,0 3,6 100 - 2,8 0 1.009,6
01:23 16,3 15,2 15,9 93,0 3,5 102 - 2,6 0 1.009,6
01:22 16,3 15,2 15,9 93,0 3,2 105 - 2,4 0 1.009,7
01:20 16,3 15,2 15,9 93,0 2,7 108 - 2,4 0 1.009,9
01:19 16,2 15,1 15,8 93,0 2,2 110 - 2,4 0 1.009,8
01:18 16,2 15,1 15,8 93,0 1,7 112 - 2,0 0 1.009,9
01:17 16,2 15,1 15,8 93,0 1,3 112 - 1,6 0 1.010,0
01:16 16,2 15,1 15,8 93,0 1,1 111 - 1,2 0 1.010,2
01:15 16,2 15,1 15,8 93,0 0,9 108 - 0,4 0 1.010,4
01:14 16,2 15,1 15,8 93,0 0,8 104 - 0,4 0 1.010,5
01:13 16,2 15,1 15,8 93,0 0,6 99 - 0,2 0 1.010,4
01:12 16,2 15,1 15,8 93,0 0,4 95 - 0,2 0 1.010,2
01:11 16,2 15,1 15,8 93,0 0,0 91 - 0,2 0 1.009,9
01:10 16,2 14,9 15,8 92,1 0,5 88 - 0,0 0 1.009,6
01:09 16,2 14,9 15,8 92,0 1,4 85 - 0,0 0 1.009,3
01:08 16,2 14,9 15,8 92,0 2,5 84 - 0,0 0 1.009,0
01:07 16,1 14,8 15,7 92,0 3,7 83 - 0,0 0 1.008,8
01:06 16,1 14,8 15,7 92,0 4,6 83 - 0,0 0 1.008,7
01:05 16,1 14,8 15,7 92,0 5,2 82 - 0,0 0 1.008,5
01:04 16,2 14,9 15,8 92,0 5,6 82 9,8 0,0 0 1.008,5
01:03 16,2 14,9 15,8 92,0 5,7 81 9,4 0,0 0 1.008,5
01:02 16,2 14,9 15,8 92,0 5,7 81 9,4 0,0 0 1.008,4
01:01 16,2 14,9 15,8 92,0 5,7 80 9,8 0,0 0 1.008,4
01:00 16,2 14,9 15,8 92,0 5,6 79 9,8 0,0 0 1.008,4
 
00:59 16,2 14,9 15,8 92,0 5,5 79 - 0,0 0 1.008,4
00:58 16,2 14,9 15,8 92,0 5,2 78 - 0,0 0 1.008,5
00:57 16,2 14,9 15,8 92,0 4,9 78 - 0,0 0 1.008,6
00:56 16,2 14,9 15,8 92,0 4,6 77 - 0,0 0 1.008,5
00:55 16,2 14,9 15,8 92,0 4,3 77 - 0,0 0 1.008,5
00:54 16,2 14,9 15,8 92,0 4,2 76 - 0,0 0 1.008,4
00:53 16,2 14,9 15,8 92,0 4,2 75 - 0,0 0 1.008,4
00:52 16,2 14,9 15,8 92,0 4,3 74 - 0,0 0 1.008,4
00:51 16,2 14,9 15,8 92,0 4,3 72 - 0,0 0 1.008,5
00:50 16,2 14,9 15,8 92,0 4,1 71 - 0,0 0 1.008,6
00:49 16,2 14,9 15,8 92,0 4,0 69 - 0,0 0 1.008,5
00:48 16,2 14,9 15,8 92,0 3,9 67 - 0,0 0 1.008,6
00:47 16,2 14,9 15,8 92,0 4,0 66 - 0,0 0 1.008,7
00:46 16,2 14,9 15,8 92,0 4,2 65 - 0,0 0 1.008,7
00:45 16,2 14,9 15,8 92,0 4,4 64 - 0,0 0 1.008,6
00:44 16,2 14,9 15,8 92,0 4,6 64 - 0,0 0 1.008,7
00:43 16,2 14,9 15,8 92,0 4,7 64 - 0,0 0 1.008,8
00:42 16,2 14,9 15,8 92,0 4,6 64 - 0,0 0 1.008,8
00:41 16,2 14,9 15,8 92,0 4,3 64 - 0,0 0 1.008,7
00:40 16,2 14,9 15,8 92,0 4,1 65 - 0,0 0 1.008,7
00:39 16,2 14,9 15,8 92,0 4,0 65 - 0,0 0 1.008,8
00:38 16,2 14,9 15,8 92,0 3,9 65 - 0,0 0 1.008,9
00:37 16,2 14,9 15,8 92,0 3,8 66 - 0,0 0 1.008,9
00:36 16,2 14,9 15,8 92,0 3,8 66 - 0,0 0 1.008,9
00:35 16,2 14,9 15,8 92,0 4,0 66 - 0,0 0 1.008,9
00:34 16,2 14,9 15,8 92,0 4,2 66 - 0,0 0 1.009,0
00:33 16,2 14,9 15,8 92,0 4,4 66 - 0,0 0 1.009,0
00:32 16,2 14,9 15,8 92,0 4,6 67 - 0,0 0 1.009,0
00:31 16,2 14,9 15,8 92,0 4,8 67 - 0,0 0 1.009,1
00:30 16,2 14,9 15,8 92,0 4,8 67 - 0,0 0 1.009,1
00:29 16,2 14,9 15,8 92,0 4,7 67 - 0,0 0 1.009,2
00:28 16,2 14,9 15,8 92,0 4,6 67 - 0,0 0 1.009,3
00:27 16,2 14,9 15,8 92,0 4,4 67 - 0,0 0 1.009,4
00:26 16,1 14,8 15,7 92,0 4,3 67 - 0,0 0 1.009,4
00:25 16,1 14,8 15,7 92,0 4,3 67 - 0,0 0 1.009,4
00:24 16,1 14,8 15,7 92,0 4,4 67 - 0,0 0 1.009,4
00:23 16,1 14,8 15,7 92,0 4,4 67 - 0,0 0 1.009,4
00:22 16,2 14,9 15,8 92,0 4,3 67 - 0,0 0 1.009,5
00:21 16,1 14,8 15,7 92,0 4,2 67 - 0,0 0 1.009,5
00:20 16,1 14,8 15,7 92,0 4,0 68 - 0,0 0 1.009,5
00:19 16,1 14,8 15,7 92,0 3,9 68 - 0,0 0 1.009,5
00:18 16,1 14,8 15,7 92,0 3,8 68 - 0,0 0 1.009,5
00:17 16,1 14,8 15,7 92,0 3,8 68 - 0,0 0 1.009,5
00:16 16,1 14,8 15,7 92,0 3,8 68 - 0,0 0 1.009,6
00:15 16,1 14,8 15,7 92,0 3,7 68 - 0,0 0 1.009,7
00:14 16,1 14,8 15,7 92,0 3,7 69 - 0,0 0 1.009,8
00:13 16,1 14,8 15,7 92,0 3,8 69 - 0,0 0 1.009,8
00:12 16,2 14,9 15,8 92,0 4,0 69 - 0,0 0 1.009,7
00:11 16,2 14,9 15,8 92,0 4,1 70 - 0,0 0 1.009,7
00:10 16,2 14,9 15,8 92,0 4,2 71 - 0,0 0 1.009,7
00:09 16,2 14,9 15,8 92,0 4,4 72 - 0,0 0 1.009,7
00:08 16,2 14,9 15,8 92,0 4,5 73 - 0,0 0 1.009,8
00:07 16,2 14,9 15,8 92,0 4,6 73 - 0,0 0 1.009,8
00:06 16,2 14,9 15,8 92,0 4,5 74 - 0,0 0 1.009,8
00:05 16,2 14,9 15,8 92,0 4,1 74 9,4 0,0 0 1.009,9
00:04 16,2 14,9 15,8 92,0 3,9 74 9,4 0,0 0 1.010,0
00:03 16,2 14,9 15,8 92,0 3,7 74 - 0,0 0 1.010,1
00:02 16,2 14,9 15,8 92,0 3,7 74 - 0,0 0 1.010,1
00:01 16,2 14,9 15,8 92,0 3,6 74 - 0,0 0 1.010,1
00:00 16,2 14,9 15,8 92,0 3,6 74 - 0,0 0 1.010,1
 
23:59 16,2 14,9 15,8 92,0 3,6 74 - 0,0 0 1.010,1
23:58 16,2 14,9 15,8 92,0 3,7 75 - 0,0 0 1.010,1
23:57 16,2 14,9 15,8 92,0 3,9 75 - 0,0 0 1.010,1
23:56 16,2 14,9 15,8 92,0 3,9 76 - 0,0 0 1.010,1
23:55 16,2 14,9 15,8 92,0 3,8 77 - 0,0 0 1.010,2
23:54 16,2 14,9 15,8 92,0 3,7 77 - 0,0 0 1.010,3
23:53 16,2 14,9 15,8 92,0 3,7 77 - 0,0 0 1.010,2
23:52 16,2 14,9 15,8 92,0 3,7 77 - 0,0 0 1.010,2
23:51 16,2 14,9 15,8 92,0 3,8 77 - 0,0 0 1.010,2
23:50 16,2 14,9 15,8 92,0 4,0 77 - 0,0 0 1.010,1
23:49 16,3 15,0 15,9 92,0 4,2 77 - 0,0 0 1.010,1
23:48 16,3 15,0 15,9 92,0 4,4 77 - 0,0 0 1.010,1
23:46 16,3 15,0 15,9 92,0 4,6 77 - 0,0 0 1.010,2
23:45 16,3 15,0 15,9 92,0 4,6 77 - 0,0 0 1.010,2
23:44 16,3 15,0 15,9 92,0 4,4 76 - 0,0 0 1.010,3
23:43 16,3 15,0 15,9 92,0 4,2 76 - 0,0 0 1.010,4
23:42 16,3 15,0 15,9 92,0 3,8 75 - 0,0 0 1.010,4
23:41 16,3 15,0 15,9 92,0 3,4 74 - 0,0 0 1.010,4
23:40 16,3 15,0 15,9 92,0 3,0 73 - 0,0 0 1.010,5
23:39 16,3 15,0 15,9 92,0 2,7 72 - 0,0 0 1.010,5
23:38 16,3 15,0 15,9 92,0 2,7 72 - 0,0 0 1.010,5
23:37 16,3 15,0 15,9 92,0 2,8 71 - 0,0 0 1.010,5
23:36 16,3 15,0 15,9 92,0 3,0 71 - 0,0 0 1.010,5
23:35 16,4 15,1 16,0 92,0 3,4 70 - 0,0 0 1.010,5
23:34 16,4 15,1 16,0 92,0 3,7 70 - 0,0 0 1.010,5
23:33 16,4 15,1 16,0 92,0 3,9 70 - 0,0 0 1.010,6
23:32 16,4 15,1 16,0 92,0 4,0 69 - 0,0 0 1.010,7
23:31 16,4 15,1 16,0 92,0 4,0 69 - 0,0 0 1.010,7
23:30 16,4 15,1 16,0 92,0 3,9 69 - 0,0 0 1.010,8
23:29 16,4 15,1 16,0 92,0 3,9 69 - 0,0 0 1.010,9
23:28 16,4 15,1 16,0 92,0 3,9 69 - 0,0 0 1.010,9
23:27 16,5 15,2 16,1 92,0 4,0 69 - 0,0 0 1.011,0
23:26 16,5 15,2 16,1 92,0 4,1 70 - 0,0 0 1.011,0
23:25 16,5 15,2 16,1 92,0 4,1 70 - 0,0 0 1.011,1
23:24 16,5 15,2 16,1 92,0 4,1 71 - 0,0 0 1.011,2
23:23 16,5 15,2 16,1 92,0 4,1 71 - 0,0 0 1.011,2
23:22 16,6 15,3 16,2 92,0 4,0 72 - 0,0 0 1.011,3
23:21 16,6 15,3 16,2 92,0 3,8 73 - 0,0 0 1.011,2
23:20 16,6 15,3 16,2 92,0 3,8 74 - 0,0 0 1.011,2
23:19 16,6 15,1 16,6 91,1 3,7 75 - 0,0 0 1.011,2
23:18 16,6 15,1 16,6 91,0 3,6 75 - 0,0 0 1.011,2
23:17 16,6 15,1 16,6 91,0 3,5 76 - 0,0 0 1.011,3
23:16 16,6 15,1 16,6 91,0 3,5 76 - 0,0 0 1.011,4
23:15 16,6 15,1 16,6 91,0 3,6 76 - 0,0 0 1.011,4
23:14 16,6 15,1 16,6 91,0 3,7 76 - 0,0 0 1.011,3
23:13 16,6 15,1 16,6 91,0 3,8 76 - 0,0 0 1.011,3
23:12 16,6 15,1 16,6 91,0 4,0 76 - 0,0 0 1.011,3
23:11 16,7 15,2 16,7 91,0 4,3 76 - 0,0 0 1.011,3
23:10 16,7 15,2 16,7 91,0 4,5 76 - 0,0 0 1.011,3
23:09 16,7 15,2 16,7 91,0 4,4 76 - 0,0 0 1.011,3
23:08 16,7 15,2 16,7 91,0 4,3 76 - 0,0 0 1.011,3
23:07 16,7 15,2 16,7 91,0 4,0 75 - 0,0 0 1.011,3
23:06 16,7 15,2 16,7 91,0 3,7 74 - 0,0 0 1.011,4
23:05 16,7 15,2 16,7 91,0 3,4 73 - 0,0 0 1.011,4
23:04 16,7 15,2 16,7 91,0 3,1 72 - 0,0 0 1.011,4
23:03 16,7 15,2 16,7 91,0 2,9 70 - 0,0 0 1.011,4
23:02 16,8 15,3 16,8 91,0 2,9 68 - 0,0 0 1.011,3
23:01 16,8 15,3 16,8 91,0 2,8 66 - 0,0 0 1.011,3
23:00 16,8 15,3 16,8 91,0 2,6 64 - 0,0 0 1.011,3
 
22:59 16,8 15,3 16,8 91,0 2,6 63 - 0,0 0 1.011,2
22:58 16,8 15,3 16,8 91,0 2,7 62 - 0,0 0 1.011,2
22:57 16,8 15,3 16,8 91,0 2,8 60 - 0,0 0 1.011,2
22:56 16,8 15,3 16,8 91,0 3,0 59 - 0,0 0 1.011,3
22:55 16,8 15,3 16,8 91,0 3,0 58 - 0,0 0 1.011,3
22:54 16,8 15,3 16,8 91,0 3,0 58 - 0,0 0 1.011,2
22:53 16,8 15,3 16,8 91,0 3,1 57 - 0,0 0 1.011,2
22:52 16,8 15,2 16,7 90,4 3,0 57 - 0,0 0 1.011,2
22:51 16,8 15,1 16,7 90,0 3,0 56 - 0,0 0 1.011,2
22:50 16,8 15,1 16,7 90,0 3,0 56 - 0,0 0 1.011,3
22:49 16,9 15,2 16,8 90,0 3,1 57 - 0,0 0 1.011,3
22:48 16,9 15,2 16,8 90,0 3,2 57 - 0,0 0 1.011,3
22:47 16,9 15,2 16,8 90,0 3,2 57 - 0,0 0 1.011,3
22:46 16,9 15,2 16,8 90,0 3,2 58 - 0,0 0 1.011,3
22:45 16,9 15,2 16,8 90,0 3,2 59 - 0,0 0 1.011,3
22:44 16,9 15,2 16,8 90,0 3,1 60 - 0,0 0 1.011,4
22:43 16,9 15,2 16,8 90,0 3,2 61 - 0,0 0 1.011,4
22:42 17,0 15,3 16,9 90,0 3,2 62 - 0,0 0 1.011,4
22:41 17,0 15,3 16,9 90,0 3,1 63 - 0,0 0 1.011,4
22:40 17,0 15,3 16,9 90,0 3,0 64 - 0,0 0 1.011,5
22:39 17,0 15,3 16,9 90,0 2,9 65 - 0,0 0 1.011,5
22:38 17,0 15,3 16,9 90,0 2,9 67 - 0,0 0 1.011,6
22:37 17,0 15,3 16,9 90,0 2,9 68 - 0,0 0 1.011,7
22:36 17,1 15,4 17,0 90,0 2,9 69 - 0,0 0 1.011,7
22:35 17,1 15,4 17,0 90,0 2,9 70 - 0,0 0 1.011,8
22:34 17,1 15,4 17,0 90,0 2,9 71 - 0,0 0 1.011,8
22:33 17,1 15,4 17,0 90,0 2,9 72 - 0,0 0 1.011,8
22:32 17,1 15,4 17,0 90,0 2,8 72 - 0,0 0 1.011,8
22:31 17,1 15,4 17,0 90,0 2,8 73 - 0,0 0 1.011,8
22:30 17,1 15,4 16,9 89,6 2,7 73 - 0,0 0 1.011,7
22:29 17,1 15,3 16,9 89,0 2,7 73 - 0,0 0 1.011,7
22:28 17,1 15,3 16,9 89,0 2,8 73 - 0,0 0 1.011,7
22:27 17,1 15,3 16,9 89,0 2,9 73 - 0,0 0 1.011,7
22:26 17,1 15,3 16,9 89,0 3,0 73 - 0,0 0 1.011,6
22:25 17,2 15,4 17,0 89,0 3,1 73 - 0,0 0 1.011,6
22:24 17,2 15,4 17,0 89,0 3,1 73 - 0,0 0 1.011,5
22:23 17,2 15,4 17,0 89,0 3,1 72 - 0,0 0 1.011,5
22:22 17,2 15,4 17,0 89,0 3,1 72 - 0,0 0 1.011,5
22:21 17,2 15,4 17,0 89,0 3,1 72 - 0,0 0 1.011,4
22:20 17,2 15,4 17,0 89,0 3,1 72 - 0,0 0 1.011,3
22:19 17,2 15,4 17,0 89,0 3,3 71 - 0,0 0 1.011,4
22:18 17,2 15,4 17,0 89,0 3,6 71 - 0,0 0 1.011,3
22:17 17,2 15,4 17,0 89,0 3,7 71 - 0,0 0 1.011,3
22:16 17,3 15,5 17,1 89,0 3,9 71 - 0,0 0 1.011,3
22:15 17,3 15,3 16,9 88,1 3,9 72 - 0,0 0 1.011,3
22:14 17,3 15,3 16,9 88,0 3,9 72 - 0,0 0 1.011,3
22:12 17,3 15,3 16,9 88,0 3,8 73 - 0,0 0 1.011,4
22:11 17,4 15,4 17,0 88,0 3,6 74 - 0,0 0 1.011,4
22:10 17,4 15,4 17,0 88,0 3,4 75 - 0,0 0 1.011,5
22:09 17,4 15,4 17,0 88,0 3,2 75 - 0,0 0 1.011,4
22:08 17,4 15,4 17,0 88,0 3,0 76 - 0,0 0 1.011,4
22:07 17,4 15,4 17,0 88,0 2,9 77 - 0,0 0 1.011,5
22:06 17,4 15,3 17,0 87,5 2,9 78 - 0,0 0 1.011,5
22:05 17,4 15,2 16,9 87,0 2,8 79 - 0,0 0 1.011,5
22:04 17,5 15,3 17,0 87,0 2,8 80 - 0,0 0 1.011,5
22:03 17,5 15,3 17,0 87,0 2,9 81 - 0,0 0 1.011,6
22:02 17,5 15,3 17,0 87,0 2,9 82 - 0,0 0 1.011,6
22:01 17,5 15,3 17,0 87,0 2,9 83 - 0,0 0 1.011,6
22:00 17,5 15,3 17,0 87,0 2,9 84 - 0,0 0 1.011,6
 
21:59 17,6 15,4 17,1 87,0 2,9 85 - 0,0 5 1.011,7
21:58 17,6 15,4 17,1 87,0 3,0 86 - 0,0 5 1.011,7
21:57 17,6 15,4 17,1 87,0 2,9 86 - 0,0 5 1.011,7
21:56 17,6 15,4 17,1 87,0 2,8 87 - 0,0 5 1.011,7
21:55 17,6 15,3 17,1 86,6 2,8 88 - 0,0 7 1.011,7
21:54 17,6 15,2 17,0 86,0 2,8 88 - 0,0 7 1.011,7
21:53 17,6 15,2 17,0 86,0 2,8 89 - 0,0 7 1.011,7
21:52 17,6 15,2 17,0 86,0 2,7 89 - 0,0 7 1.011,8
21:51 17,6 15,2 17,0 86,0 2,8 90 - 0,0 8 1.011,8
21:50 17,7 15,3 17,1 86,0 2,9 90 - 0,0 9 1.011,8
21:49 17,7 15,3 17,1 86,0 2,9 90 - 0,0 9 1.011,9
21:48 17,7 15,3 17,1 86,0 2,8 90 - 0,0 9 1.011,9
21:47 17,7 15,3 17,1 86,0 2,7 90 - 0,0 11 1.012,0
21:46 17,7 15,3 17,1 86,0 2,7 89 - 0,0 11 1.012,0
21:45 17,7 15,3 17,1 86,0 2,7 89 - 0,0 11 1.012,0
21:44 17,7 15,3 17,1 86,0 2,6 89 - 0,0 12 1.012,0
21:43 17,8 15,4 17,2 86,0 2,6 88 - 0,0 12 1.012,0
21:42 17,8 15,4 17,2 86,0 2,6 88 - 0,0 12 1.012,0
21:41 17,8 15,4 17,2 86,0 2,6 88 - 0,0 14 1.012,0
21:40 17,8 15,4 17,2 86,0 2,6 88 - 0,0 15 1.012,0
21:39 17,8 15,4 17,2 86,0 2,6 88 - 0,0 16 1.012,0
21:38 17,8 15,4 17,2 86,0 2,6 88 - 0,0 17 1.012,0
21:37 17,8 15,4 17,2 86,0 2,6 88 - 0,0 18 1.012,0
21:36 17,8 15,4 17,2 86,0 2,7 88 - 0,0 19 1.012,0
21:35 17,9 15,5 17,3 86,0 2,8 88 - 0,0 20 1.012,0
21:34 17,9 15,4 17,2 85,1 2,8 88 - 0,0 21 1.012,0
21:33 17,9 15,3 17,2 85,0 2,8 88 - 0,0 22 1.012,0
21:32 17,9 15,3 17,2 85,0 2,8 88 - 0,0 23 1.012,0
21:31 18,0 15,4 17,3 85,0 2,7 88 - 0,0 25 1.012,0
21:30 18,0 15,4 17,3 85,0 2,6 88 - 0,0 25 1.012,0
21:29 18,0 15,4 17,3 85,0 2,5 87 - 0,0 26 1.012,0
21:28 18,0 15,4 17,3 85,0 2,4 87 - 0,0 27 1.012,1
21:27 18,1 15,5 17,4 85,0 2,3 86 - 0,0 28 1.012,1
21:26 18,1 15,5 17,4 85,0 2,3 85 - 0,0 29 1.012,2
21:25 18,1 15,5 17,4 85,0 2,1 84 - 0,0 30 1.012,2
21:24 18,1 15,5 17,4 85,0 2,0 83 - 0,0 32 1.012,1
21:23 18,1 15,5 17,4 85,0 1,9 81 - 0,0 32 1.012,2
21:22 18,1 15,5 17,4 85,0 1,8 79 - 0,0 33 1.012,2
21:21 18,1 15,5 17,4 85,0 1,9 78 - 0,0 33 1.012,2
21:20 18,1 15,5 17,4 85,0 1,9 76 - 0,0 35 1.012,3
21:19 18,1 15,5 17,4 85,0 1,9 74 - 0,0 35 1.012,3
21:18 18,1 15,5 17,4 85,0 2,0 71 - 0,0 37 1.012,3
21:17 18,1 15,5 17,4 85,0 2,0 69 - 0,0 37 1.012,4
21:16 18,1 15,5 17,4 85,0 2,0 66 - 0,0 37 1.012,4
21:15 18,1 15,5 17,4 85,0 1,9 64 - 0,0 38 1.012,5
21:14 18,1 15,5 17,4 85,0 1,9 61 - 0,0 39 1.012,5
21:13 18,2 15,6 17,5 85,0 2,0 59 - 0,0 40 1.012,4
21:12 18,2 15,6 17,5 85,0 2,0 57 - 0,0 42 1.012,4
21:11 18,2 15,6 17,5 85,0 2,0 56 - 0,0 45 1.012,3
21:10 18,2 15,6 17,5 85,0 2,0 55 - 0,0 46 1.012,3
21:09 18,2 15,6 17,4 84,7 2,0 54 - 0,0 46 1.012,2
21:08 18,2 15,5 17,3 84,0 1,9 54 - 0,0 48 1.012,2
21:07 18,2 15,5 17,3 84,0 1,9 54 - 0,0 49 1.012,2
21:06 18,2 15,5 17,3 84,0 1,9 54 - 0,0 49 1.012,2
21:05 18,2 15,5 17,3 84,0 1,8 54 - 0,0 48 1.012,2
21:04 18,2 15,5 17,3 84,0 1,9 55 - 0,0 49 1.012,2
21:03 18,2 15,5 17,3 84,0 2,0 55 - 0,0 48 1.012,2
21:02 18,2 15,5 17,3 84,0 2,1 55 - 0,0 46 1.012,2
21:01 18,2 15,5 17,3 84,0 2,2 55 - 0,0 44 1.012,2
21:00 18,2 15,5 17,3 84,0 2,3 56 - 0,0 46 1.012,1
 
20:59 18,2 15,5 17,3 84,0 2,4 56 - 0,0 46 1.012,2
20:58 18,3 15,5 17,4 84,0 2,4 57 - 0,0 48 1.012,2
20:57 18,3 15,5 17,4 84,0 2,3 57 - 0,0 50 1.012,2
20:56 18,3 15,5 17,4 84,0 2,2 58 - 0,0 53 1.012,2
20:55 18,3 15,5 17,4 84,0 2,1 58 - 0,0 54 1.012,1
20:54 18,3 15,5 17,4 84,0 2,0 59 - 0,0 54 1.012,1
20:53 18,3 15,5 17,4 84,0 2,0 59 - 0,0 54 1.012,1
20:52 18,3 15,5 17,4 84,0 2,0 58 - 0,0 55 1.012,1
20:51 18,3 15,5 17,4 83,7 2,0 58 - 0,0 57 1.012,1
20:50 18,3 15,4 17,3 83,0 2,2 57 - 0,0 58 1.012,1
20:49 18,3 15,4 17,3 83,0 2,3 55 - 0,0 60 1.012,1
20:48 18,4 15,6 17,5 83,8 2,4 54 - 0,0 62 1.012,1
20:47 18,4 15,6 17,5 84,0 2,4 53 - 0,0 62 1.012,1
20:46 18,4 15,6 17,5 84,0 2,5 52 - 0,0 65 1.012,1
20:45 18,4 15,6 17,5 84,0 2,5 51 - 0,0 67 1.012,1
20:44 18,4 15,6 17,5 84,0 2,4 51 - 0,0 69 1.012,2
20:43 18,3 15,5 17,4 84,0 2,3 51 - 0,0 71 1.012,3
20:42 18,3 15,4 17,3 83,2 2,2 50 - 0,0 75 1.012,3
20:41 18,3 15,4 17,3 83,0 2,2 50 - 0,0 76 1.012,4
20:40 18,3 15,4 17,3 83,0 2,1 50 - 0,0 76 1.012,4
20:38 18,3 15,4 17,3 83,0 2,1 50 - 0,0 76 1.012,4
20:37 18,3 15,4 17,3 83,0 2,0 50 - 0,0 76 1.012,5
20:36 18,3 15,4 17,3 83,0 2,1 51 - 0,0 76 1.012,5
20:35 18,4 15,5 17,4 83,0 2,1 51 - 0,0 77 1.012,5
20:34 18,4 15,5 17,4 83,0 2,1 51 - 0,0 77 1.012,6
20:33 18,4 15,5 17,4 83,0 2,2 51 - 0,0 76 1.012,6
20:32 18,4 15,5 17,4 83,0 2,3 52 - 0,0 76 1.012,6
20:31 18,4 15,5 17,4 83,0 2,3 52 - 0,0 74 1.012,6
20:30 18,4 15,5 17,4 83,0 2,3 53 - 0,0 74 1.012,6
20:29 18,3 15,4 17,3 83,0 2,4 53 - 0,0 74 1.012,6
20:28 18,3 15,4 17,3 83,0 2,5 54 - 0,0 73 1.012,6
20:27 18,3 15,4 17,3 83,0 2,4 54 - 0,0 71 1.012,6
20:26 18,4 15,5 17,4 83,0 2,4 54 - 0,0 70 1.012,6
20:25 18,4 15,5 17,4 83,0 2,5 54 - 0,0 70 1.012,6
20:24 18,3 15,4 17,3 83,0 2,5 54 - 0,0 70 1.012,7
20:23 18,3 15,4 17,3 83,0 2,4 53 - 0,0 68 1.012,7
20:22 18,4 15,5 17,4 83,0 2,4 52 - 0,0 64 1.012,8
20:21 18,4 15,5 17,4 83,0 2,4 51 - 0,0 59 1.012,9
20:20 18,4 15,5 17,4 83,0 2,5 50 - 0,0 54 1.012,9
20:19 18,4 15,5 17,4 83,0 2,5 49 - 0,0 53 1.012,9
20:18 18,4 15,5 17,4 83,0 2,5 47 - 0,0 50 1.012,9
20:17 18,4 15,5 17,4 83,0 2,5 45 - 0,0 48 1.013,0
20:16 18,4 15,5 17,4 83,0 2,4 44 - 0,0 48 1.013,1
20:15 18,4 15,5 17,4 83,0 2,2 43 - 0,0 49 1.013,1
20:14 18,4 15,5 17,4 83,0 2,0 42 - 0,0 49 1.013,2
20:13 18,4 15,5 17,4 83,0 1,7 41 - 0,0 52 1.013,1
20:12 18,4 15,5 17,4 83,0 1,6 40 - 0,0 55 1.013,1
20:11 18,4 15,5 17,4 83,0 1,7 39 - 0,0 59 1.013,2
20:10 18,4 15,5 17,4 83,0 1,8 39 - 0,0 66 1.013,1
20:09 18,5 15,6 17,5 83,0 2,0 38 - 0,0 75 1.013,1
20:08 18,5 15,6 17,5 83,0 2,2 37 - 0,0 86 1.013,1
20:07 18,5 15,6 17,5 83,0 2,3 37 - 0,0 84 1.013,0
20:06 18,5 15,6 17,5 83,0 2,4 36 - 0,0 82 1.013,0
20:05 18,5 15,6 17,5 83,2 2,4 36 - 0,0 91 1.013,1
20:04 18,5 15,7 17,6 84,0 2,3 36 - 0,0 100 1.013,0
20:03 18,5 15,7 17,6 83,5 2,1 37 - 0,0 104 1.013,0
20:02 18,5 15,6 17,5 83,0 2,0 37 - 0,0 104 1.013,1
20:01 18,4 15,5 17,4 83,0 1,9 38 - 0,0 107 1.013,1
20:00 18,4 15,5 17,4 83,0 1,9 39 - 0,0 114 1.013,1
 
19:59 18,4 15,5 17,4 83,0 2,0 39 - 0,0 120 1.013,2
19:58 18,4 15,5 17,4 83,0 2,2 40 - 0,0 120 1.013,2
19:57 18,4 15,5 17,4 83,0 2,3 39 - 0,0 117 1.013,2
19:56 18,4 15,5 17,4 83,0 2,4 38 - 0,0 112 1.013,2
19:55 18,4 15,5 17,4 83,0 2,4 36 - 0,0 105 1.013,1
19:54 18,4 15,5 17,4 83,0 2,4 34 - 0,0 112 1.013,1
19:53 18,3 15,4 17,3 83,0 2,4 31 - 0,0 126 1.013,1
19:52 18,3 15,4 17,3 83,0 2,4 27 - 0,0 164 1.013,1
19:51 18,3 15,5 17,4 83,6 2,3 23 - 0,0 186 1.013,2
19:50 18,3 15,5 17,4 84,0 2,2 18 - 0,0 140 1.013,2
19:49 18,3 15,5 17,4 84,0 2,0 14 - 0,0 121 1.013,2
19:48 18,3 15,4 17,3 83,1 1,8 9 - 0,0 111 1.013,2
19:47 18,3 15,4 17,3 83,0 1,7 4 - 0,0 106 1.013,2
19:46 18,3 15,4 17,3 83,0 1,7 358 - 0,0 108 1.013,2
19:45 18,3 15,4 17,3 83,0 1,9 354 - 0,0 99 1.013,3
19:44 18,2 15,3 17,2 83,0 2,2 349 - 0,0 94 1.013,3
19:43 18,2 15,3 17,2 83,0 2,3 345 - 0,0 91 1.013,3
19:42 18,2 15,3 17,2 83,0 2,4 341 - 0,0 94 1.013,4
19:41 18,2 15,3 17,2 83,0 2,4 338 - 0,0 98 1.013,4
19:40 18,2 15,3 17,2 83,0 2,4 335 - 0,0 96 1.013,4
19:39 18,2 15,3 17,2 83,0 2,4 332 - 0,0 97 1.013,5
19:38 18,2 15,3 17,2 83,0 2,3 330 - 0,0 100 1.013,5
19:37 18,2 15,3 17,2 83,0 2,2 328 - 0,0 99 1.013,4
19:36 18,2 15,3 17,2 83,0 2,1 327 - 0,0 96 1.013,4
19:35 18,2 15,3 17,2 83,0 2,1 326 - 0,0 96 1.013,5
19:34 18,2 15,3 17,2 83,0 2,2 325 - 0,0 98 1.013,5
19:33 18,3 15,4 17,3 83,0 2,3 326 - 0,0 100 1.013,5
19:32 18,3 15,4 17,3 83,0 2,3 326 - 0,0 103 1.013,5
19:31 18,3 15,4 17,3 83,0 2,4 327 - 0,0 104 1.013,5
19:30 18,3 15,4 17,3 83,0 2,5 327 - 0,0 105 1.013,4
19:29 18,3 15,4 17,3 83,0 2,6 328 - 0,0 108 1.013,4
19:28 18,3 15,4 17,3 83,0 2,7 329 - 0,0 111 1.013,4
19:27 18,3 15,4 17,3 83,0 2,8 329 - 0,0 115 1.013,4
19:26 18,3 15,4 17,3 83,0 2,9 329 - 0,0 132 1.013,4
19:25 18,3 15,5 17,4 84,0 2,9 329 - 0,0 159 1.013,4
19:24 18,3 15,5 17,4 84,0 2,8 329 - 0,0 173 1.013,3
19:23 18,3 15,5 17,4 84,0 2,6 329 - 0,0 150 1.013,4
19:22 18,2 15,5 17,3 84,0 2,5 330 - 0,0 139 1.013,4
19:21 18,2 15,5 17,3 84,0 2,3 330 - 0,0 136 1.013,4
19:20 18,2 15,5 17,3 84,0 2,2 331 - 0,0 143 1.013,4
19:19 18,2 15,5 17,3 84,0 2,1 332 - 0,0 152 1.013,5
19:18 18,1 15,3 17,2 83,6 2,2 333 - 0,0 144 1.013,5
19:17 18,1 15,2 17,1 83,0 2,4 334 - 0,0 135 1.013,5
19:16 18,1 15,2 17,1 83,0 2,6 335 - 0,0 132 1.013,4
19:15 18,1 15,3 17,2 83,7 2,7 336 - 0,0 127 1.013,4
19:14 18,1 15,4 17,2 84,0 2,7 336 - 0,0 125 1.013,5
19:13 18,1 15,4 17,2 84,0 2,8 336 - 0,0 123 1.013,5
19:12 18,1 15,4 17,2 84,0 2,8 336 - 0,0 119 1.013,5
19:11 18,1 15,4 17,2 84,0 2,9 335 - 0,0 114 1.013,5
19:10 18,1 15,4 17,2 84,0 2,9 335 - 0,0 111 1.013,5
19:09 18,1 15,4 17,2 84,0 2,9 334 - 0,0 108 1.013,5
19:08 18,1 15,4 17,2 84,0 2,9 334 - 0,0 105 1.013,5
19:07 18,1 15,4 17,2 84,0 2,9 333 - 0,0 102 1.013,5
19:06 18,1 15,4 17,2 84,0 2,9 333 - 0,0 100 1.013,6
19:04 18,1 15,5 17,3 84,6 2,9 332 - 0,0 94 1.013,6
19:03 18,2 15,6 17,5 85,0 2,9 332 - 0,0 93 1.013,6
19:02 18,1 15,5 17,4 85,0 3,0 331 - 0,0 92 1.013,6
19:01 18,1 15,5 17,3 84,8 3,1 330 - 0,0 94 1.013,6
19:00 18,1 15,4 17,3 84,3 3,2 329 - 0,0 96 1.013,6
 
18:59 18,1 15,5 17,4 85,0 3,2 328 - 0,0 100 1.013,6
18:58 18,1 15,4 17,3 84,4 3,2 327 - 0,0 102 1.013,6
18:57 18,1 15,4 17,2 84,0 3,2 327 - 0,0 105 1.013,5
18:56 18,1 15,4 17,2 84,0 3,1 326 - 0,0 110 1.013,5
18:55 18,1 15,4 17,2 84,0 3,0 326 - 0,0 119 1.013,5
18:54 18,0 15,3 17,1 84,0 2,9 325 - 0,0 126 1.013,5
18:53 18,0 15,3 17,1 84,0 2,8 325 - 0,0 125 1.013,5
18:52 18,0 15,3 17,1 84,0 2,8 325 - 0,0 120 1.013,5
18:51 18,0 15,3 17,1 84,0 2,8 324 - 0,0 114 1.013,6
18:50 18,0 15,3 17,1 84,0 2,8 324 - 0,0 112 1.013,6
18:49 18,1 15,4 17,2 84,0 2,8 324 - 0,0 108 1.013,6
18:48 18,1 15,4 17,2 84,0 2,7 324 - 0,0 102 1.013,6
18:47 18,1 15,4 17,2 84,0 2,7 324 - 0,0 98 1.013,6
18:46 18,1 15,4 17,2 84,0 2,7 323 - 0,0 91 1.013,6
18:45 18,1 15,4 17,2 84,0 2,7 323 - 0,0 88 1.013,6
18:44 18,1 15,4 17,2 84,0 2,8 323 - 0,0 89 1.013,6
18:43 18,1 15,4 17,2 84,0 2,9 322 - 0,0 91 1.013,6
18:42 18,1 15,4 17,2 84,0 3,0 322 - 0,0 92 1.013,6
18:41 18,1 15,4 17,3 84,5 3,0 321 - 0,0 96 1.013,7
18:40 18,1 15,5 17,4 85,0 2,8 320 - 0,0 98 1.013,7
18:39 18,1 15,5 17,4 85,0 2,7 319 - 0,0 98 1.013,8
18:38 18,1 15,5 17,3 84,7 2,5 318 - 0,0 99 1.013,9
18:37 18,1 15,4 17,2 84,0 2,3 316 - 0,0 101 1.013,9
18:36 18,1 15,4 17,2 84,0 2,3 315 - 0,0 106 1.013,9
18:35 18,1 15,4 17,2 84,0 2,2 314 - 0,0 112 1.013,9
18:34 18,1 15,4 17,2 84,0 2,1 313 - 0,0 119 1.014,0
18:33 18,1 15,4 17,2 84,0 2,1 312 - 0,0 127 1.013,9
18:32 18,1 15,4 17,2 84,0 2,1 312 - 0,0 133 1.013,9
18:31 18,1 15,4 17,2 84,0 2,1 312 - 0,0 130 1.014,0
18:30 18,1 15,4 17,2 84,0 2,2 312 - 0,0 126 1.014,0
18:29 18,1 15,4 17,2 84,0 2,3 313 - 0,0 120 1.014,0
18:28 18,0 15,3 17,1 84,0 2,4 313 - 0,0 118 1.014,0
18:27 18,1 15,4 17,2 84,0 2,6 313 - 0,0 116 1.014,0
18:26 18,1 15,4 17,2 84,0 2,6 314 - 0,0 111 1.014,0
18:25 18,0 15,3 17,1 84,0 2,6 314 - 0,0 107 1.014,0
18:24 18,0 15,3 17,1 84,0 2,6 314 - 0,0 104 1.014,0
18:23 18,0 15,3 17,1 84,0 2,6 313 - 0,0 105 1.014,0
18:22 18,0 15,3 17,1 84,0 2,6 313 - 0,0 115 1.014,1
18:21 18,0 15,3 17,1 84,0 2,6 313 - 0,0 118 1.014,1
18:20 18,0 15,4 17,3 85,0 2,7 313 - 0,0 118 1.014,1
18:19 18,0 15,4 17,2 84,7 2,7 313 - 0,0 115 1.014,1
18:18 17,9 15,2 17,0 84,0 2,7 313 - 0,0 113 1.014,1
18:17 17,9 15,2 17,0 84,0 2,5 313 - 0,0 116 1.014,1
18:16 17,9 15,2 17,0 84,0 2,3 313 - 0,0 113 1.014,1
18:15 17,9 15,2 17,0 84,0 2,1 312 - 0,0 113 1.014,1
18:14 17,9 15,2 17,0 84,2 1,9 312 - 0,0 120 1.014,1
18:13 17,9 15,3 17,2 85,0 1,8 310 - 0,0 128 1.014,1
18:12 17,8 15,2 17,0 85,0 1,7 309 - 0,0 132 1.014,1
18:11 17,8 15,2 17,0 85,0 1,6 308 - 0,0 128 1.014,1
18:10 17,8 15,2 17,0 85,0 1,5 306 - 0,0 121 1.014,2
18:09 17,8 15,2 17,0 85,0 1,5 305 - 0,0 110 1.014,2
18:08 17,8 15,2 17,0 85,0 1,5 303 - 0,0 97 1.014,2
18:07 17,8 15,2 17,0 85,0 1,5 302 - 0,0 84 1.014,2
18:06 17,8 15,2 17,0 85,0 1,6 301 - 0,0 75 1.014,2
18:05 17,8 15,2 17,0 85,0 1,6 301 - 0,0 72 1.014,2
18:04 17,7 15,1 16,9 85,0 1,5 300 - 0,0 73 1.014,2
18:03 17,7 15,1 16,9 85,0 1,5 299 - 0,0 73 1.014,2
18:02 17,7 15,1 16,9 85,0 1,5 298 - 0,0 70 1.014,3
18:01 17,7 15,1 16,9 85,0 1,4 297 - 0,0 66 1.014,3
18:00 17,7 15,1 16,9 85,0 1,4 295 - 0,0 63 1.014,3
 
17:59 17,7 15,1 16,9 85,0 1,3 293 - 0,0 62 1.014,3
17:58 17,7 15,1 16,9 85,0 1,2 292 - 0,0 60 1.014,3
17:57 17,7 15,1 16,9 85,0 1,2 290 - 0,0 59 1.014,3
17:56 17,7 15,1 16,9 85,0 1,3 289 - 0,0 57 1.014,3
17:55 17,7 15,1 16,9 85,0 1,4 288 - 0,0 55 1.014,3
17:54 17,7 15,1 16,9 85,0 1,7 287 - 0,0 54 1.014,4
17:53 17,7 15,1 16,9 85,0 2,0 287 - 0,0 56 1.014,4
17:52 17,7 15,1 16,9 85,0 2,2 287 - 0,0 59 1.014,4
17:51 17,7 15,1 16,9 85,0 2,4 287 - 0,0 63 1.014,4
17:50 17,7 15,1 16,9 85,0 2,3 288 - 0,0 65 1.014,4
17:49 17,7 15,1 16,9 85,0 2,3 288 - 0,0 69 1.014,3
17:48 17,7 15,1 16,9 85,0 2,3 289 - 0,0 72 1.014,3
17:47 17,7 15,1 16,9 85,0 2,4 290 - 0,0 77 1.014,3
17:46 17,7 15,1 16,9 85,0 2,4 290 - 0,0 80 1.014,3
17:45 17,7 15,1 16,9 85,0 2,6 291 - 0,0 80 1.014,3
17:44 17,7 15,1 16,9 85,0 2,7 292 - 0,0 77 1.014,4
17:43 17,7 15,1 16,9 85,0 2,8 293 - 0,0 72 1.014,4
17:42 17,7 15,1 16,9 85,0 2,8 294 - 0,0 65 1.014,4
17:41 17,7 15,1 16,9 85,0 2,8 295 - 0,0 64 1.014,4
17:40 17,7 15,1 16,9 85,0 2,8 297 - 0,0 70 1.014,4
17:39 17,7 15,1 16,9 85,0 2,8 298 - 0,0 80 1.014,4
17:38 17,7 15,1 16,9 85,0 2,7 299 - 0,0 84 1.014,4
17:37 17,7 15,1 16,9 85,0 2,6 300 - 0,0 84 1.014,4
17:36 17,7 15,1 16,9 85,0 2,6 300 - 0,0 85 1.014,4
17:35 17,7 15,1 16,9 85,0 2,5 301 - 0,0 92 1.014,4
17:34 17,7 15,1 16,9 85,0 2,5 301 - 0,0 103 1.014,4
17:33 17,7 15,1 16,9 85,0 2,5 301 - 0,0 117 1.014,4
17:32 17,7 15,1 16,9 85,0 2,6 301 - 0,0 117 1.014,4
17:30 17,8 15,4 17,2 86,0 2,7 302 - 0,0 95 1.014,5
17:29 17,7 15,3 17,1 86,0 2,7 302 - 0,0 88 1.014,5
17:28 17,7 15,3 17,1 86,0 2,7 302 - 0,0 88 1.014,5
17:27 17,7 15,3 17,1 86,0 2,7 303 - 0,0 93 1.014,5
17:26 17,7 15,3 17,0 85,7 2,8 303 - 0,0 97 1.014,5
17:25 17,7 15,1 16,9 85,0 2,9 304 - 0,0 100 1.014,5
17:24 17,7 15,3 17,0 85,7 3,1 304 - 0,0 100 1.014,6
17:23 17,8 15,4 17,2 86,1 3,2 304 - 0,0 102 1.014,6
17:22 17,8 15,6 17,3 87,0 3,4 304 - 0,0 101 1.014,6
17:21 17,8 15,6 17,3 86,8 3,5 304 - 0,0 100 1.014,7
17:20 17,7 15,3 17,1 86,0 3,5 304 - 0,0 100 1.014,7
17:19 17,7 15,3 17,1 86,0 3,5 303 - 0,0 104 1.014,6
17:18 17,7 15,3 17,1 86,0 3,5 303 - 0,0 111 1.014,6
17:17 17,7 15,3 17,1 86,0 3,5 302 - 0,0 115 1.014,6
17:16 17,7 15,3 17,1 86,0 3,5 302 - 0,0 118 1.014,6
17:15 17,7 15,3 17,1 86,0 3,5 301 - 0,0 116 1.014,6
17:14 17,7 15,3 17,1 86,0 3,6 301 - 0,0 109 1.014,7
17:13 17,6 15,2 17,0 86,0 3,7 300 - 0,0 99 1.014,7
17:12 17,7 15,3 17,1 86,0 3,7 300 - 0,0 90 1.014,7
17:11 17,7 15,3 17,1 86,0 3,9 299 - 0,0 83 1.014,7
17:10 17,7 15,3 17,1 86,0 4,0 298 - 0,0 79 1.014,7
17:09 17,7 15,3 17,1 86,0 4,1 297 - 0,0 76 1.014,7
17:08 17,7 15,3 17,1 86,0 4,3 296 - 0,0 75 1.014,7
17:07 17,7 15,3 17,1 86,0 4,3 294 - 0,0 74 1.014,8
17:06 17,8 15,6 17,3 86,7 4,3 292 - 0,0 76 1.014,8
17:05 17,8 15,5 17,2 86,2 4,2 291 - 0,0 73 1.014,9
17:04 17,7 15,3 17,1 86,0 4,1 290 - 0,0 72 1.014,9
17:03 17,7 15,3 17,1 86,0 4,0 289 - 0,0 72 1.015,0
17:02 17,7 15,3 17,1 86,0 3,9 288 - 0,0 72 1.015,0
17:01 17,7 15,3 17,1 86,0 3,9 287 - 0,0 72 1.015,0
17:00 17,7 15,3 17,1 86,0 3,9 286 - 0,0 69 1.015,1
 
16:59 17,7 15,2 17,0 85,2 4,1 285 - 0,0 67 1.015,1
16:58 17,7 15,1 16,9 85,0 4,4 285 - 0,0 69 1.015,1
16:57 17,8 15,3 17,1 85,3 4,5 284 - 0,0 74 1.015,1
16:56 17,8 15,4 17,2 86,0 4,6 283 - 0,0 80 1.015,0
16:55 17,8 15,4 17,2 86,0 4,7 283 - 0,0 85 1.015,0
16:54 17,8 15,3 17,1 85,3 4,8 282 - 0,0 91 1.014,9
16:53 17,8 15,4 17,2 85,9 4,9 282 - 0,0 96 1.014,9
16:52 17,8 15,4 17,2 85,8 4,9 281 - 0,0 100 1.014,9
16:51 17,8 15,2 17,0 85,0 5,0 281 - 0,0 103 1.014,9
16:50 17,8 15,2 17,0 85,0 4,9 281 - 0,0 106 1.014,8
16:49 17,9 15,3 17,2 85,0 4,8 281 - 0,0 109 1.014,8
16:48 17,9 15,3 17,2 85,0 4,6 281 - 0,0 109 1.014,9
16:47 17,9 15,3 17,2 85,0 4,5 281 - 0,0 110 1.014,9
16:46 17,9 15,3 17,2 85,0 4,4 281 - 0,0 112 1.014,9
16:45 18,0 15,4 17,3 85,0 4,3 281 - 0,0 115 1.014,9
16:44 18,0 15,5 17,3 85,5 4,2 281 - 0,0 118 1.014,9
16:43 18,1 15,7 17,5 86,0 4,2 281 - 0,0 120 1.014,9
16:42 18,1 15,7 17,5 86,0 4,0 280 - 0,0 120 1.014,9
16:41 18,1 15,7 17,5 86,0 3,9 280 - 0,0 116 1.014,9
16:40 18,0 15,4 17,3 85,0 3,8 279 - 0,0 114 1.015,0
16:39 17,9 15,3 17,2 85,0 3,9 279 - 0,0 115 1.014,9
16:38 17,9 15,3 17,2 85,0 4,0 278 - 0,0 119 1.014,9
16:37 17,9 15,3 17,2 85,0 4,2 278 - 0,0 125 1.014,9
16:36 17,9 15,3 17,2 85,0 4,5 277 - 0,0 129 1.014,9
16:35 17,9 15,2 17,0 84,1 4,8 276 - 0,0 133 1.014,9
16:34 17,9 15,2 17,1 84,3 5,0 275 - 0,0 135 1.015,0
16:33 17,9 15,3 17,1 84,6 5,1 274 - 0,0 133 1.015,1
16:32 17,9 15,3 17,1 84,6 5,2 274 - 0,0 126 1.015,0
16:31 17,9 15,3 17,2 85,0 5,3 273 - 0,0 115 1.015,0
16:30 17,9 15,2 17,0 84,2 5,2 272 - 0,0 108 1.015,0
16:29 17,9 15,3 17,1 84,9 5,1 272 - 0,0 106 1.015,0
16:28 17,9 15,2 17,0 84,0 5,0 271 - 0,0 107 1.015,0
16:27 17,9 15,2 17,0 84,0 5,0 271 - 0,0 106 1.015,0
16:26 17,9 15,2 17,0 84,0 4,8 270 - 0,0 102 1.015,0
16:25 17,9 15,2 17,0 84,0 4,7 270 - 0,0 100 1.015,1
16:24 17,9 15,3 17,1 84,9 4,6 269 - 0,0 98 1.015,0
16:23 17,9 15,2 17,0 84,1 4,6 269 - 0,0 95 1.015,0
16:22 17,9 15,2 17,0 84,0 4,6 269 - 0,0 91 1.015,1
16:21 17,9 15,3 17,1 84,5 4,5 269 - 0,0 90 1.015,1
16:20 17,9 15,3 17,1 84,5 4,5 269 - 0,0 97 1.015,0
16:19 17,9 15,2 17,0 84,0 4,7 269 - 0,0 104 1.015,0
16:18 18,0 15,3 17,1 84,0 4,2 239 - 0,0 99 1.014,9
16:17 18,0 15,4 17,3 85,0 5,7 273 - 0,0 100 1.015,0
16:16 18,0 15,4 17,3 85,0 5,6 265 - 0,0 99 1.014,9
16:15 18,0 15,4 17,3 85,0 5,6 270 - 0,0 101 1.015,0
16:14 18,0 15,3 17,2 84,4 4,6 282 - 0,0 102 1.015,0
16:13 18,0 15,4 17,2 84,8 4,8 275 - 0,0 98 1.015,0
16:12 18,0 15,4 17,3 85,0 5,7 252 - 0,0 98 1.015,0
16:11 18,0 15,4 17,3 85,0 4,9 297 - 0,0 94 1.015,1
16:10 18,1 15,5 17,4 85,0 6,3 269 - 0,0 89 1.015,1
16:09 18,0 15,4 17,2 84,6 5,7 284 - 0,0 88 1.015,2
16:08 18,1 15,5 17,3 84,6 5,3 274 - 0,0 86 1.015,2
16:07 18,1 15,4 17,3 84,3 6,0 270 - 0,0 86 1.015,2
16:06 18,1 15,5 17,3 84,8 6,5 279 - 0,0 87 1.015,1
16:05 18,1 15,4 17,2 84,0 6,8 259 - 0,0 89 1.015,1
16:04 18,1 15,4 17,2 84,0 6,7 273 - 0,0 90 1.015,1